Time,TemperatureF,DewpointF,PressureIn,WindDirection,WindDirectionDegrees,WindSpeedMPH,WindSpeedGustMPH,Humidity,HourlyPrecipIn,Conditions,Clouds,dailyrainin,SolarRadiationWatts/m^2,SoftwareType,DateUTC
2013-06-01 00:01:00,78.8,75.3,29.99,SSE,163,5.0,9.0,89,0.00,,FEW,0.00,0.00,VWS V14.01,2013-06-01 04:01:00,
2013-06-01 00:06:00,78.8,75.3,29.99,SE,136,6.0,8.0,89,0.00,,FEW,0.00,0.00,VWS V14.01,2013-06-01 04:06:00,
2013-06-01 00:11:00,78.9,75.4,29.99,SE,138,3.0,8.0,89,0.00,,FEW,0.00,0.00,VWS V14.01,2013-06-01 04:11:00,
2013-06-01 00:12:00,78.9,75.4,29.99,SSE,156,3.0,5.0,89,0.00,,FEW,0.00,0.00,VWS V14.01,2013-06-01 04:12:00,
2013-06-01 00:16:00,78.9,75.4,29.98,SE,124,3.0,5.0,89,0.00,,FEW,0.00,0.00,VWS V14.01,2013-06-01 04:16:00,
2013-06-01 00:17:00,78.8,75.3,29.98,ESE,121,2.0,5.0,89,0.00,,FEW,0.00,0.00,VWS V14.01,2013-06-01 04:17:00,
2013-06-01 00:21:00,78.8,75.3,29.98,SE,134,0.0,5.0,89,0.00,,FEW,0.00,0.00,VWS V14.01,2013-06-01 04:21:00,
2013-06-01 00:22:00,78.8,75.3,29.98,SE,131,2.0,4.0,89,0.00,,FEW,0.00,0.00,VWS V14.01,2013-06-01 04:22:00,
2013-06-01 00:26:00,78.7,75.2,29.98,SSE,152,4.0,4.0,89,0.00,,FEW,0.00,0.00,VWS V14.01,2013-06-01 04:26:00,
2013-06-01 00:27:00,78.7,75.2,29.98,SE,142,2.0,4.0,89,0.00,,FEW,0.00,0.00,VWS V14.01,2013-06-01 04:27:00,
2013-06-01 00:31:00,78.7,75.2,29.98,SSE,153,3.0,5.0,89,0.00,,FEW,0.00,0.00,VWS V14.01,2013-06-01 04:31:00,
2013-06-01 00:32:00,78.7,75.2,29.98,SSE,153,2.0,2.0,89,0.00,,FEW,0.00,0.00,VWS V14.01,2013-06-01 04:32:00,
2013-06-01 00:36:00,78.7,75.2,29.98,SE,142,3.0,4.0,89,0.00,,FEW,0.00,0.00,VWS V14.01,2013-06-01 04:36:00,
2013-06-01 00:37:00,78.7,75.2,29.98,SE,132,2.0,4.0,89,0.00,,FEW,0.00,0.00,VWS V14.01,2013-06-01 04:37:00,
2013-06-01 00:41:00,78.7,75.2,29.98,SE,137,3.0,6.0,89,0.00,,FEW,0.00,0.00,VWS V14.01,2013-06-01 04:41:00,
2013-06-01 00:42:00,78.7,75.2,29.98,SE,145,3.0,6.0,89,0.00,,FEW,0.00,0.00,VWS V14.01,2013-06-01 04:42:00,
2013-06-01 00:47:00,78.8,75.3,29.98,SE,145,4.0,6.0,89,0.00,,FEW,0.00,0.00,VWS V14.01,2013-06-01 04:47:00,
2013-06-01 00:52:00,78.7,75.2,29.98,SE,140,6.0,6.0,89,0.00,,FEW,0.00,0.00,VWS V14.01,2013-06-01 04:52:00,
2013-06-01 00:57:00,78.6,75.1,29.98,SE,137,3.0,7.0,89,0.00,,FEW,0.00,0.00,VWS V14.01,2013-06-01 04:57:00,
2013-06-01 00:58:00,78.5,75.0,29.98,SE,140,3.0,7.0,89,0.00,,FEW,0.00,0.00,VWS V14.01,2013-06-01 04:58:00,
2013-06-01 01:02:00,78.5,75.0,29.99,SE,145,4.0,4.0,89,0.00,,FEW,0.00,0.00,VWS V14.01,2013-06-01 05:02:00,
2013-06-01 01:03:00,78.5,75.0,29.99,SE,146,7.0,7.0,89,0.00,,FEW,0.00,0.00,VWS V14.01,2013-06-01 05:03:00,
2013-06-01 01:07:00,78.5,75.0,29.99,SE,140,6.0,8.0,89,0.00,,FEW,0.00,0.00,VWS V14.01,2013-06-01 05:07:00,
2013-06-01 01:08:00,78.6,75.1,29.99,SE,145,2.0,8.0,89,0.00,,FEW,0.00,0.00,VWS V14.01,2013-06-01 05:08:00,
2013-06-01 01:09:00,78.6,75.1,29.99,SSE,150,3.0,8.0,89,0.00,,FEW,0.00,0.00,VWS V14.01,2013-06-01 05:09:00,
2013-06-01 01:12:00,78.5,74.7,29.99,SSE,152,3.0,5.0,88,0.00,,FEW,0.00,0.00,VWS V14.01,2013-06-01 05:12:00,
2013-06-01 01:13:00,78.5,74.7,29.99,ESE,118,2.0,5.0,88,0.00,,FEW,0.00,0.00,VWS V14.01,2013-06-01 05:13:00,
2013-06-01 01:14:00,78.5,74.7,29.99,ESE,103,2.0,5.0,88,0.00,,FEW,0.00,0.00,VWS V14.01,2013-06-01 05:14:00,
2013-06-01 01:17:00,78.5,74.7,29.98,ESE,120,3.0,6.0,88,0.00,,FEW,0.00,0.00,VWS V14.01,2013-06-01 05:17:00,
2013-06-01 01:18:00,78.5,74.7,29.98,ESE,120,2.0,6.0,88,0.00,,FEW,0.00,0.00,VWS V14.01,2013-06-01 05:18:00,
2013-06-01 01:19:00,78.5,74.7,29.98,SE,130,1.0,6.0,88,0.00,,FEW,0.00,0.00,VWS V14.01,2013-06-01 05:19:00,
2013-06-01 01:22:00,78.6,74.8,29.98,SE,126,2.0,5.0,88,0.00,,FEW,0.00,0.00,VWS V14.01,2013-06-01 05:22:00,
2013-06-01 01:23:00,78.6,75.1,29.98,SSE,148,4.0,5.0,89,0.00,,FEW,0.00,0.00,VWS V14.01,2013-06-01 05:23:00,
2013-06-01 01:24:00,78.6,75.1,29.98,SE,128,3.0,6.0,89,0.00,,FEW,0.00,0.00,VWS V14.01,2013-06-01 05:24:00,
2013-06-01 01:27:00,78.7,75.2,29.98,SE,142,2.0,6.0,89,0.00,,FEW,0.00,0.00,VWS V14.01,2013-06-01 05:27:00,
2013-06-01 01:28:00,78.7,75.2,29.98,SE,137,2.0,6.0,89,0.00,,FEW,0.00,0.00,VWS V14.01,2013-06-01 05:28:00,
2013-06-01 01:29:00,78.7,75.2,29.98,SE,131,0.0,6.0,89,0.00,,FEW,0.00,0.00,VWS V14.01,2013-06-01 05:29:00,
2013-06-01 01:32:00,78.8,75.3,29.98,ENE,69,4.0,7.0,89,0.00,,FEW,0.00,0.00,VWS V14.01,2013-06-01 05:32:00,
2013-06-01 01:33:00,78.8,75.3,29.98,ESE,113,5.0,7.0,89,0.00,,FEW,0.00,0.00,VWS V14.01,2013-06-01 05:33:00,
2013-06-01 01:34:00,78.8,75.3,29.98,ESE,116,2.0,7.0,89,0.00,,FEW,0.00,0.00,VWS V14.01,2013-06-01 05:34:00,
2013-06-01 01:38:00,78.9,75.4,29.98,SE,135,3.0,7.0,89,0.00,,FEW,0.00,0.00,VWS V14.01,2013-06-01 05:38:00,
2013-06-01 01:39:00,78.9,75.4,29.98,SE,134,3.0,7.0,89,0.00,,FEW,0.00,0.00,VWS V14.01,2013-06-01 05:39:00,
2013-06-01 01:43:00,78.9,75.4,29.98,SE,126,0.0,3.0,89,0.00,,FEW,0.00,0.00,VWS V14.01,2013-06-01 05:43:00,
2013-06-01 01:44:00,78.9,75.4,29.98,ESE,115,1.0,3.0,89,0.00,,FEW,0.00,0.00,VWS V14.01,2013-06-01 05:44:00,
2013-06-01 01:48:00,78.8,75.3,29.97,SE,127,0.0,3.0,89,0.00,,FEW,0.00,0.00,VWS V14.01,2013-06-01 05:48:00,
2013-06-01 01:49:00,78.8,75.3,29.97,SE,127,1.0,3.0,89,0.00,,FEW,0.00,0.00,VWS V14.01,2013-06-01 05:49:00,
2013-06-01 01:53:00,78.8,75.3,29.97,ESE,117,3.0,3.0,89,0.00,,FEW,0.00,0.00,VWS V14.01,2013-06-01 05:53:00,
2013-06-01 01:54:00,78.8,75.3,29.97,ESE,117,0.0,3.0,89,0.00,,FEW,0.00,0.00,VWS V14.01,2013-06-01 05:54:00,
2013-06-01 01:58:00,78.8,75.3,29.97,SE,146,0.0,3.0,89,0.00,,FEW,0.00,0.00,VWS V14.01,2013-06-01 05:58:00,
2013-06-01 01:59:00,78.8,75.3,29.97,East,100,1.0,3.0,89,0.00,,FEW,0.00,0.00,VWS V14.01,2013-06-01 05:59:00,
2013-06-01 02:00:00,78.7,75.2,29.97,SE,144,3.0,3.0,89,0.00,,FEW,0.00,0.00,VWS V14.01,2013-06-01 06:00:00,
2013-06-01 02:03:00,78.7,75.2,29.97,East,88,0.0,3.0,89,0.00,,FEW,0.00,0.00,VWS V14.01,2013-06-01 06:03:00,
2013-06-01 02:04:00,78.7,75.2,29.97,East,88,0.0,3.0,89,0.00,,FEW,0.00,0.00,VWS V14.01,2013-06-01 06:04:00,
2013-06-01 02:05:00,78.7,75.2,29.97,East,88,0.0,3.0,89,0.00,,FEW,0.00,0.00,VWS V14.01,2013-06-01 06:05:00,
2013-06-01 02:08:00,78.7,75.2,29.97,ESE,122,1.0,3.0,89,0.00,,FEW,0.00,0.00,VWS V14.01,2013-06-01 06:08:00,
2013-06-01 02:09:00,78.7,75.2,29.97,ESE,122,0.0,3.0,89,0.00,,FEW,0.00,0.00,VWS V14.01,2013-06-01 06:09:00,
2013-06-01 02:10:00,78.7,75.2,29.97,ESE,122,0.0,3.0,89,0.00,,FEW,0.00,0.00,VWS V14.01,2013-06-01 06:10:00,
2013-06-01 02:14:00,78.8,75.3,29.97,SE,140,0.0,2.0,89,0.00,,FEW,0.00,0.00,VWS V14.01,2013-06-01 06:14:00,
2013-06-01 02:15:00,78.8,75.3,29.97,SE,134,1.0,2.0,89,0.00,,FEW,0.00,0.00,VWS V14.01,2013-06-01 06:15:00,
2013-06-01 02:19:00,78.8,75.3,29.97,ESE,107,1.0,3.0,89,0.00,,FEW,0.00,0.00,VWS V14.01,2013-06-01 06:19:00,
2013-06-01 02:20:00,78.8,75.3,29.97,ESE,107,0.0,3.0,89,0.00,,FEW,0.00,0.00,VWS V14.01,2013-06-01 06:20:00,
2013-06-01 02:24:00,78.8,75.3,29.97,East,100,0.0,2.0,89,0.00,,FEW,0.00,0.00,VWS V14.01,2013-06-01 06:24:00,
2013-06-01 02:25:00,78.8,75.3,29.97,East,100,0.0,2.0,89,0.00,,FEW,0.00,0.00,VWS V14.01,2013-06-01 06:25:00,
2013-06-01 02:29:00,78.9,75.4,29.97,East,90,0.0,2.0,89,0.00,,FEW,0.00,0.00,VWS V14.01,2013-06-01 06:29:00,
2013-06-01 02:30:00,78.8,75.3,29.97,East,90,0.0,2.0,89,0.00,,FEW,0.00,0.00,VWS V14.01,2013-06-01 06:30:00,
2013-06-01 02:34:00,78.8,75.3,29.96,ESE,116,3.0,4.0,89,0.00,,FEW,0.00,0.00,VWS V14.01,2013-06-01 06:34:00,
2013-06-01 02:35:00,78.8,75.3,29.96,SE,136,3.0,4.0,89,0.00,,FEW,0.00,0.00,VWS V14.01,2013-06-01 06:35:00,
2013-06-01 02:39:00,78.7,75.2,29.96,ESE,120,0.0,4.0,89,0.00,,FEW,0.00,0.00,VWS V14.01,2013-06-01 06:39:00,
2013-06-01 02:40:00,78.7,75.2,29.96,ESE,119,2.0,4.0,89,0.00,,FEW,0.00,0.00,VWS V14.01,2013-06-01 06:40:00,
2013-06-01 02:41:00,78.7,75.2,29.96,ESE,119,1.0,4.0,89,0.00,,FEW,0.00,0.00,VWS V14.01,2013-06-01 06:41:00,
2013-06-01 02:44:00,78.7,75.2,29.96,ESE,121,0.0,3.0,89,0.00,,FEW,0.00,0.00,VWS V14.01,2013-06-01 06:44:00,
2013-06-01 02:45:00,78.7,75.2,29.96,ESE,121,1.0,3.0,89,0.00,,FEW,0.00,0.00,VWS V14.01,2013-06-01 06:45:00,
2013-06-01 02:46:00,78.7,75.2,29.96,SE,131,3.0,4.0,89,0.00,,FEW,0.00,0.00,VWS V14.01,2013-06-01 06:46:00,
2013-06-01 02:49:00,78.7,75.2,29.96,ESE,122,0.0,4.0,89,0.00,,FEW,0.00,0.00,VWS V14.01,2013-06-01 06:49:00,
2013-06-01 02:50:00,78.7,75.2,29.96,ESE,122,1.0,4.0,89,0.00,,FEW,0.00,0.00,VWS V14.01,2013-06-01 06:50:00,
2013-06-01 02:51:00,78.7,74.8,29.96,ESE,122,1.0,4.0,88,0.00,,FEW,0.00,0.00,VWS V14.01,2013-06-01 06:51:00,
2013-06-01 02:54:00,78.7,74.8,29.96,SE,144,1.0,2.0,88,0.00,,FEW,0.00,0.00,VWS V14.01,2013-06-01 06:54:00,
2013-06-01 02:55:00,78.7,74.8,29.96,SE,144,0.0,2.0,88,0.00,,FEW,0.00,0.00,VWS V14.01,2013-06-01 06:55:00,
2013-06-01 02:56:00,78.7,74.8,29.96,SE,144,1.0,2.0,88,0.00,,FEW,0.00,0.00,VWS V14.01,2013-06-01 06:56:00,
2013-06-01 02:59:00,78.6,74.8,29.96,ESE,121,1.0,3.0,88,0.00,,FEW,0.00,0.00,VWS V14.01,2013-06-01 06:59:00,
2013-06-01 03:00:00,78.6,74.8,29.94,SE,146,2.0,4.0,88,0.00,,FEW,0.00,0.00,VWS V14.01,2013-06-01 07:00:00,
2013-06-01 03:01:00,78.6,74.8,29.94,SE,146,2.0,4.0,88,0.00,,FEW,0.00,0.00,VWS V14.01,2013-06-01 07:01:00,
2013-06-01 03:02:00,78.6,74.8,29.94,SE,130,1.0,3.0,88,0.00,,FEW,0.00,0.00,VWS V14.01,2013-06-01 07:02:00,
2013-06-01 03:05:00,78.6,74.8,29.94,SE,134,3.0,6.0,88,0.00,,FEW,0.00,0.00,VWS V14.01,2013-06-01 07:05:00,
2013-06-01 03:06:00,78.6,74.8,29.94,SE,128,1.0,6.0,88,0.00,,FEW,0.00,0.00,VWS V14.01,2013-06-01 07:06:00,
2013-06-01 03:07:00,78.6,74.8,29.94,SE,128,0.0,6.0,88,0.00,,FEW,0.00,0.00,VWS V14.01,2013-06-01 07:07:00,
2013-06-01 03:10:00,78.8,74.9,29.94,SE,144,1.0,6.0,88,0.00,,FEW,0.00,0.00,VWS V14.01,2013-06-01 07:10:00,
2013-06-01 03:11:00,78.8,74.9,29.94,SE,127,3.0,3.0,88,0.00,,FEW,0.00,0.00,VWS V14.01,2013-06-01 07:11:00,
2013-06-01 03:12:00,78.8,74.9,29.94,SE,127,1.0,3.0,88,0.00,,FEW,0.00,0.00,VWS V14.01,2013-06-01 07:12:00,
2013-06-01 03:15:00,78.8,74.9,29.94,SE,129,1.0,3.0,88,0.00,,FEW,0.00,0.00,VWS V14.01,2013-06-01 07:15:00,
2013-06-01 03:17:00,78.8,74.9,29.94,SE,129,1.0,3.0,88,0.00,,FEW,0.00,0.00,VWS V14.01,2013-06-01 07:17:00,
2013-06-01 03:18:00,78.9,75.1,29.94,SE,129,0.0,3.0,88,0.00,,FEW,0.00,0.00,VWS V14.01,2013-06-01 07:18:00,
2013-06-01 03:21:00,78.9,75.1,29.94,SE,129,0.0,3.0,88,0.00,,FEW,0.00,0.00,VWS V14.01,2013-06-01 07:21:00,
2013-06-01 03:22:00,78.9,75.1,29.94,SE,129,0.0,0.0,88,0.00,,FEW,0.00,0.00,VWS V14.01,2013-06-01 07:22:00,
2013-06-01 03:23:00,78.9,75.1,29.94,SE,129,0.0,1.0,88,0.00,,FEW,0.00,0.00,VWS V14.01,2013-06-01 07:23:00,
2013-06-01 03:26:00,78.9,75.1,29.94,SSE,149,1.0,3.0,88,0.00,,FEW,0.00,0.00,VWS V14.01,2013-06-01 07:26:00,
2013-06-01 03:27:00,78.9,75.1,29.94,ESE,115,1.0,3.0,88,0.00,,FEW,0.00,0.00,VWS V14.01,2013-06-01 07:27:00,
2013-06-01 03:28:00,79.0,75.5,29.94,SSE,154,1.0,4.0,89,0.00,,FEW,0.00,0.00,VWS V14.01,2013-06-01 07:28:00,
2013-06-01 03:31:00,79.0,75.5,29.94,SSE,147,2.0,4.0,89,0.00,,FEW,0.00,0.00,VWS V14.01,2013-06-01 07:31:00,
2013-06-01 03:32:00,79.0,75.5,29.94,SSE,148,5.0,5.0,89,0.00,,FEW,0.00,0.00,VWS V14.01,2013-06-01 07:32:00,
2013-06-01 03:33:00,79.0,75.5,29.94,SE,128,1.0,5.0,89,0.00,,FEW,0.00,0.00,VWS V14.01,2013-06-01 07:33:00,
2013-06-01 03:36:00,79.0,75.5,29.94,ESE,109,2.0,5.0,89,0.00,,FEW,0.00,0.00,VWS V14.01,2013-06-01 07:36:00,
2013-06-01 03:37:00,79.0,75.5,29.94,SE,145,2.0,5.0,89,0.00,,FEW,0.00,0.00,VWS V14.01,2013-06-01 07:37:00,
2013-06-01 03:38:00,79.0,75.5,29.94,SSE,161,2.0,5.0,89,0.00,,FEW,0.00,0.00,VWS V14.01,2013-06-01 07:38:00,
2013-06-01 03:41:00,79.0,75.5,29.94,SE,134,2.0,2.0,89,0.00,,FEW,0.00,0.00,VWS V14.01,2013-06-01 07:41:00,
2013-06-01 03:42:00,79.0,75.5,29.94,SE,134,1.0,2.0,89,0.00,,FEW,0.00,0.00,VWS V14.01,2013-06-01 07:42:00,
2013-06-01 03:43:00,79.0,75.5,29.94,SSE,155,2.0,3.0,89,0.00,,FEW,0.00,0.00,VWS V14.01,2013-06-01 07:43:00,
2013-06-01 03:46:00,78.9,75.4,29.94,SSE,148,1.0,4.0,89,0.00,,FEW,0.00,0.00,VWS V14.01,2013-06-01 07:46:00,
2013-06-01 03:47:00,79.0,75.5,29.94,SSE,148,1.0,4.0,89,0.00,,FEW,0.00,0.00,VWS V14.01,2013-06-01 07:47:00,
2013-06-01 03:48:00,79.0,75.5,29.94,SE,136,2.0,5.0,89,0.00,,FEW,0.00,0.00,VWS V14.01,2013-06-01 07:48:00,
2013-06-01 03:49:00,78.9,75.4,29.94,SSE,155,1.0,5.0,89,0.00,,FEW,0.00,0.00,VWS V14.01,2013-06-01 07:49:00,
2013-06-01 03:51:00,78.9,75.4,29.94,SE,128,1.0,3.0,89,0.00,,FEW,0.00,0.00,VWS V14.01,2013-06-01 07:51:00,
2013-06-01 03:52:00,78.9,75.4,29.94,ESE,115,3.0,3.0,89,0.00,,FEW,0.00,0.00,VWS V14.01,2013-06-01 07:52:00,
2013-06-01 03:53:00,78.9,75.4,29.94,SE,142,2.0,5.0,89,0.00,,FEW,0.00,0.00,VWS V14.01,2013-06-01 07:53:00,
2013-06-01 03:54:00,78.9,75.4,29.94,SE,146,3.0,5.0,89,0.00,,FEW,0.00,0.00,VWS V14.01,2013-06-01 07:54:00,
2013-06-01 03:57:00,78.9,75.4,29.94,SE,142,3.0,5.0,89,0.00,,FEW,0.00,0.00,VWS V14.01,2013-06-01 07:57:00,
2013-06-01 03:58:00,78.9,75.4,29.94,SE,139,3.0,5.0,89,0.00,,FEW,0.00,0.00,VWS V14.01,2013-06-01 07:58:00,
2013-06-01 03:59:00,78.9,75.4,29.94,SE,144,3.0,5.0,89,0.00,,FEW,0.00,0.00,VWS V14.01,2013-06-01 07:59:00,
2013-06-01 04:02:00,79.0,75.5,29.94,ESE,113,2.0,5.0,89,0.00,,FEW,0.00,0.00,VWS V14.01,2013-06-01 08:02:00,
2013-06-01 04:03:00,79.0,75.5,29.94,SSE,156,2.0,5.0,89,0.00,,FEW,0.00,0.00,VWS V14.01,2013-06-01 08:03:00,
2013-06-01 04:04:00,79.0,75.5,29.94,SE,140,3.0,5.0,89,0.00,,FEW,0.00,0.00,VWS V14.01,2013-06-01 08:04:00,
2013-06-01 04:07:00,79.1,75.6,29.94,SE,144,3.0,5.0,89,0.00,,FEW,0.00,0.00,VWS V14.01,2013-06-01 08:07:00,
2013-06-01 04:08:00,79.1,75.6,29.94,SE,132,2.0,5.0,89,0.00,,FEW,0.00,0.00,VWS V14.01,2013-06-01 08:08:00,
2013-06-01 04:09:00,79.1,75.6,29.94,SSE,147,5.0,5.0,89,0.00,,FEW,0.00,0.00,VWS V14.01,2013-06-01 08:09:00,
2013-06-01 04:12:00,79.1,75.6,29.94,SSE,154,2.0,4.0,89,0.00,,FEW,0.00,0.00,VWS V14.01,2013-06-01 08:12:00,
2013-06-01 04:13:00,79.1,75.6,29.94,ESE,121,2.0,4.0,89,0.00,,FEW,0.00,0.00,VWS V14.01,2013-06-01 08:13:00,
2013-06-01 04:14:00,79.1,75.6,29.94,SSE,155,3.0,4.0,89,0.00,,FEW,0.00,0.00,VWS V14.01,2013-06-01 08:14:00,
2013-06-01 04:17:00,79.1,75.6,29.93,SSE,159,2.0,4.0,89,0.00,,FEW,0.00,0.00,VWS V14.01,2013-06-01 08:17:00,
2013-06-01 04:18:00,79.1,75.6,29.93,SE,132,3.0,4.0,89,0.00,,FEW,0.00,0.00,VWS V14.01,2013-06-01 08:18:00,
2013-06-01 04:19:00,79.1,75.6,29.93,SSE,163,4.0,4.0,89,0.00,,FEW,0.00,0.00,VWS V14.01,2013-06-01 08:19:00,
2013-06-01 04:22:00,79.1,75.6,29.93,SSE,150,2.0,2.0,89,0.00,,FEW,0.00,0.00,VWS V14.01,2013-06-01 08:22:00,
2013-06-01 04:23:00,79.1,75.6,29.93,SSE,150,1.0,2.0,89,0.00,,FEW,0.00,0.00,VWS V14.01,2013-06-01 08:23:00,
2013-06-01 04:24:00,79.1,75.6,29.93,SSE,150,0.0,2.0,89,0.00,,FEW,0.00,0.00,VWS V14.01,2013-06-01 08:24:00,
2013-06-01 04:27:00,79.1,75.6,29.93,SSE,150,0.0,2.0,89,0.00,,FEW,0.00,0.00,VWS V14.01,2013-06-01 08:27:00,
2013-06-01 04:28:00,79.1,75.6,29.93,SE,136,1.0,3.0,89,0.00,,FEW,0.00,0.00,VWS V14.01,2013-06-01 08:28:00,
2013-06-01 04:30:00,79.1,75.6,29.93,SE,136,0.0,3.0,89,0.00,,FEW,0.00,0.00,VWS V14.01,2013-06-01 08:30:00,
2013-06-01 04:32:00,79.0,75.5,29.93,SE,136,0.0,2.0,89,0.00,,FEW,0.00,0.00,VWS V14.01,2013-06-01 08:32:00,
2013-06-01 04:33:00,79.0,75.5,29.93,SE,136,1.0,2.0,89,0.00,,FEW,0.00,0.00,VWS V14.01,2013-06-01 08:33:00,
2013-06-01 04:35:00,79.0,75.5,29.93,SE,136,1.0,2.0,89,0.00,,FEW,0.00,0.00,VWS V14.01,2013-06-01 08:35:00,
2013-06-01 04:37:00,79.0,75.5,29.93,SE,136,0.0,2.0,89,0.00,,FEW,0.00,0.00,VWS V14.01,2013-06-01 08:37:00,
2013-06-01 04:38:00,79.0,75.5,29.93,SE,136,0.0,2.0,89,0.00,,FEW,0.00,0.00,VWS V14.01,2013-06-01 08:38:00,
2013-06-01 04:39:00,79.0,75.5,29.93,SE,136,0.0,2.0,89,0.00,,FEW,0.00,0.00,VWS V14.01,2013-06-01 08:39:00,
2013-06-01 04:40:00,79.0,75.5,29.93,SE,136,0.0,2.0,89,0.00,,FEW,0.00,0.00,VWS V14.01,2013-06-01 08:40:00,
2013-06-01 04:42:00,78.9,75.4,29.93,SE,136,0.0,0.0,89,0.00,,FEW,0.00,0.00,VWS V14.01,2013-06-01 08:42:00,
2013-06-01 04:43:00,78.9,75.4,29.93,SE,136,0.0,0.0,89,0.00,,FEW,0.00,0.00,VWS V14.01,2013-06-01 08:43:00,
2013-06-01 04:44:00,78.9,75.4,29.93,SE,136,0.0,0.0,89,0.00,,FEW,0.00,0.00,VWS V14.01,2013-06-01 08:44:00,
2013-06-01 04:45:00,78.9,75.4,29.93,SE,136,0.0,0.0,89,0.00,,FEW,0.00,0.00,VWS V14.01,2013-06-01 08:45:00,
2013-06-01 04:47:00,78.9,75.4,29.92,SE,136,0.0,0.0,89,0.00,,FEW,0.00,0.00,VWS V14.01,2013-06-01 08:47:00,
2013-06-01 04:48:00,78.9,75.4,29.92,SE,136,0.0,0.0,89,0.00,,FEW,0.00,0.00,VWS V14.01,2013-06-01 08:48:00,
2013-06-01 04:49:00,78.9,75.4,29.92,SE,136,0.0,0.0,89,0.00,,FEW,0.00,0.00,VWS V14.01,2013-06-01 08:49:00,
2013-06-01 04:50:00,78.8,75.3,29.92,SE,136,0.0,0.0,89,0.00,,FEW,0.00,0.00,VWS V14.01,2013-06-01 08:50:00,
2013-06-01 04:53:00,78.8,75.3,29.92,SE,136,0.0,0.0,89,0.00,,FEW,0.00,0.00,VWS V14.01,2013-06-01 08:53:00,
2013-06-01 04:54:00,78.8,75.3,29.92,SE,136,0.0,0.0,89,0.00,,FEW,0.00,0.00,VWS V14.01,2013-06-01 08:54:00,
2013-06-01 04:55:00,78.7,75.2,29.92,SE,136,0.0,0.0,89,0.00,,FEW,0.00,0.00,VWS V14.01,2013-06-01 08:55:00,
2013-06-01 04:58:00,78.7,75.2,29.92,SE,136,0.0,0.0,89,0.00,,FEW,0.00,0.00,VWS V14.01,2013-06-01 08:58:00,
2013-06-01 04:59:00,78.7,75.2,29.92,SE,136,0.0,0.0,89,0.00,,FEW,0.00,0.00,VWS V14.01,2013-06-01 08:59:00,
2013-06-01 05:00:00,78.7,75.2,29.93,SE,136,0.0,0.0,89,0.00,,FEW,0.00,0.00,VWS V14.01,2013-06-01 09:00:00,
2013-06-01 05:03:00,78.6,75.1,29.93,SE,136,0.0,0.0,89,0.00,,FEW,0.00,0.00,VWS V14.01,2013-06-01 09:03:00,
2013-06-01 05:04:00,78.6,75.1,29.93,SE,136,0.0,0.0,89,0.00,,FEW,0.00,0.00,VWS V14.01,2013-06-01 09:04:00,
2013-06-01 05:06:00,78.6,75.1,29.93,SE,136,0.0,0.0,89,0.00,,FEW,0.00,0.00,VWS V14.01,2013-06-01 09:06:00,
2013-06-01 05:08:00,78.5,75.0,29.93,SE,136,0.0,0.0,89,0.00,,FEW,0.00,0.00,VWS V14.01,2013-06-01 09:08:00,
2013-06-01 05:09:00,78.5,75.0,29.93,SE,136,0.0,0.0,89,0.00,,FEW,0.00,0.00,VWS V14.01,2013-06-01 09:09:00,
2013-06-01 05:10:00,78.5,75.0,29.93,SE,136,0.0,0.0,89,0.00,,FEW,0.00,0.00,VWS V14.01,2013-06-01 09:10:00,
2013-06-01 05:11:00,78.5,75.0,29.93,SE,136,0.0,0.0,89,0.00,,FEW,0.00,0.00,VWS V14.01,2013-06-01 09:11:00,
2013-06-01 05:13:00,78.5,75.0,29.93,SE,136,0.0,0.0,89,0.00,,FEW,0.00,0.00,VWS V14.01,2013-06-01 09:13:00,
2013-06-01 05:14:00,78.5,75.0,29.93,SE,136,0.0,0.0,89,0.00,,FEW,0.00,0.00,VWS V14.01,2013-06-01 09:14:00,
2013-06-01 05:15:00,78.5,75.0,29.93,SE,136,0.0,0.0,89,0.00,,FEW,0.00,0.00,VWS V14.01,2013-06-01 09:15:00,
2013-06-01 05:16:00,78.5,75.0,29.92,SE,136,0.0,0.0,89,0.00,,FEW,0.00,0.00,VWS V14.01,2013-06-01 09:16:00,
2013-06-01 05:18:00,78.4,74.9,29.92,SE,136,0.0,0.0,89,0.00,,FEW,0.00,0.00,VWS V14.01,2013-06-01 09:18:00,
2013-06-01 05:19:00,78.4,74.9,29.92,SE,136,0.0,0.0,89,0.00,,FEW,0.00,0.00,VWS V14.01,2013-06-01 09:19:00,
2013-06-01 05:20:00,78.4,74.9,29.92,SE,136,0.0,0.0,89,0.00,,FEW,0.00,0.00,VWS V14.01,2013-06-01 09:20:00,
2013-06-01 05:21:00,78.4,74.9,29.92,SE,136,0.0,0.0,89,0.00,,FEW,0.00,0.00,VWS V14.01,2013-06-01 09:21:00,
2013-06-01 05:24:00,78.4,74.9,29.92,SE,136,0.0,0.0,89,0.00,,FEW,0.00,0.00,VWS V14.01,2013-06-01 09:24:00,
2013-06-01 05:25:00,78.4,74.9,29.92,SE,136,0.0,0.0,89,0.00,,FEW,0.00,0.00,VWS V14.01,2013-06-01 09:25:00,
2013-06-01 05:26:00,78.4,74.9,29.92,SE,136,0.0,0.0,89,0.00,,FEW,0.00,0.00,VWS V14.01,2013-06-01 09:26:00,
2013-06-01 05:29:00,78.4,75.2,29.92,SE,136,0.0,1.0,90,0.00,,FEW,0.00,0.00,VWS V14.01,2013-06-01 09:29:00,
2013-06-01 05:30:00,78.4,75.2,29.92,SE,136,0.0,1.0,90,0.00,,FEW,0.00,0.00,VWS V14.01,2013-06-01 09:30:00,
2013-06-01 05:31:00,78.4,75.2,29.93,SE,136,0.0,1.0,90,0.00,,FEW,0.00,0.00,VWS V14.01,2013-06-01 09:31:00,
2013-06-01 05:35:00,78.4,75.2,29.93,SE,136,0.0,0.0,90,0.00,,FEW,0.00,0.00,VWS V14.01,2013-06-01 09:35:00,
2013-06-01 05:36:00,78.4,75.2,29.93,SE,131,1.0,1.0,90,0.00,,FEW,0.00,0.00,VWS V14.01,2013-06-01 09:36:00,
2013-06-01 05:40:00,78.4,75.2,29.93,SE,131,0.0,2.0,90,0.00,,FEW,0.00,0.00,VWS V14.01,2013-06-01 09:40:00,
2013-06-01 05:41:00,78.3,75.1,29.93,ESE,116,0.0,1.0,90,0.00,,FEW,0.00,0.00,VWS V14.01,2013-06-01 09:41:00,
2013-06-01 05:45:00,78.2,75.0,29.93,ESE,105,0.0,2.0,90,0.00,,FEW,0.00,0.00,VWS V14.01,2013-06-01 09:45:00,
2013-06-01 05:47:00,78.2,75.0,29.94,ESE,105,1.0,2.0,90,0.00,,FEW,0.00,0.00,VWS V14.01,2013-06-01 09:47:00,
2013-06-01 05:50:00,78.2,75.0,29.94,ESE,105,0.0,2.0,90,0.00,,FEW,0.00,0.00,VWS V14.01,2013-06-01 09:50:00,
2013-06-01 05:51:00,78.2,75.0,29.94,ESE,105,0.0,2.0,90,0.00,,FEW,0.00,0.00,VWS V14.01,2013-06-01 09:51:00,
2013-06-01 05:52:00,78.2,75.0,29.94,ESE,105,1.0,1.0,90,0.00,,FEW,0.00,0.00,VWS V14.01,2013-06-01 09:52:00,
2013-06-01 05:55:00,78.1,74.9,29.94,ESE,105,0.0,1.0,90,0.00,,FEW,0.00,0.00,VWS V14.01,2013-06-01 09:55:00,
2013-06-01 05:56:00,78.1,74.9,29.94,ESE,103,2.0,3.0,90,0.00,,FEW,0.00,0.00,VWS V14.01,2013-06-01 09:56:00,
2013-06-01 05:57:00,78.1,74.9,29.94,ESE,103,0.0,3.0,90,0.00,,FEW,0.00,0.00,VWS V14.01,2013-06-01 09:57:00,
2013-06-01 06:00:00,78.1,74.9,29.94,ESE,103,0.0,3.0,90,0.00,,FEW,0.00,0.00,VWS V14.01,2013-06-01 10:00:00,
2013-06-01 06:01:00,78.1,74.9,29.94,East,100,0.0,3.0,90,0.00,,FEW,0.00,0.00,VWS V14.01,2013-06-01 10:01:00,
2013-06-01 06:02:00,78.1,74.9,29.94,East,100,0.0,2.0,90,0.00,,FEW,0.00,0.00,VWS V14.01,2013-06-01 10:02:00,
2013-06-01 06:05:00,78.0,74.8,29.94,East,100,0.0,2.0,90,0.00,,FEW,0.00,0.00,VWS V14.01,2013-06-01 10:05:00,
2013-06-01 06:06:00,78.0,74.8,29.94,East,100,0.0,2.0,90,0.00,,FEW,0.00,0.00,VWS V14.01,2013-06-01 10:06:00,
2013-06-01 06:07:00,78.0,74.8,29.94,East,100,1.0,2.0,90,0.00,,FEW,0.00,0.00,VWS V14.01,2013-06-01 10:07:00,
2013-06-01 06:10:00,77.9,74.7,29.94,East,92,1.0,2.0,90,0.00,,FEW,0.00,0.00,VWS V14.01,2013-06-01 10:10:00,
2013-06-01 06:11:00,77.9,74.7,29.94,East,92,0.0,2.0,90,0.00,,FEW,0.00,0.00,VWS V14.01,2013-06-01 10:11:00,
2013-06-01 06:12:00,77.9,74.7,29.94,East,92,1.0,2.0,90,0.00,,FEW,0.00,0.00,VWS V14.01,2013-06-01 10:12:00,
2013-06-01 06:16:00,77.9,74.7,29.94,East,88,1.0,2.0,90,0.00,,FEW,0.00,0.00,VWS V14.01,2013-06-01 10:16:00,
2013-06-01 06:17:00,77.9,74.7,29.94,ENE,69,0.0,3.0,90,0.00,,FEW,0.00,0.00,VWS V14.01,2013-06-01 10:17:00,
2013-06-01 06:21:00,78.0,74.8,29.94,ENE,69,1.0,3.0,90,0.00,,FEW,0.00,0.00,VWS V14.01,2013-06-01 10:21:00,
2013-06-01 06:22:00,78.0,74.8,29.94,ENE,69,0.0,1.0,90,0.00,,FEW,0.00,0.00,VWS V14.01,2013-06-01 10:22:00,
2013-06-01 06:26:00,78.0,75.2,29.94,ENE,69,1.0,1.0,91,0.00,,FEW,0.00,0.00,VWS V14.01,2013-06-01 10:26:00,
2013-06-01 06:27:00,78.1,75.3,29.94,ENE,69,0.0,2.0,91,0.00,,FEW,0.00,0.00,VWS V14.01,2013-06-01 10:27:00,
2013-06-01 06:31:00,78.1,75.3,29.95,ENE,59,1.0,3.0,91,0.00,,FEW,0.00,0.00,VWS V14.01,2013-06-01 10:31:00,
2013-06-01 06:32:00,78.1,75.3,29.95,ENE,59,0.0,1.0,91,0.00,,FEW,0.00,0.00,VWS V14.01,2013-06-01 10:32:00,
2013-06-01 06:33:00,78.1,75.3,29.95,NE,55,0.0,3.0,91,0.00,,FEW,0.00,0.00,VWS V14.01,2013-06-01 10:33:00,
2013-06-01 06:36:00,78.2,75.4,29.95,NE,56,0.0,3.0,91,0.00,,FEW,0.00,0.00,VWS V14.01,2013-06-01 10:36:00,
2013-06-01 06:37:00,78.2,75.4,29.95,NE,56,0.0,3.0,91,0.00,,FEW,0.00,0.00,VWS V14.01,2013-06-01 10:37:00,
2013-06-01 06:38:00,78.2,75.4,29.95,NE,56,0.0,3.0,91,0.00,,FEW,0.00,0.00,VWS V14.01,2013-06-01 10:38:00,
2013-06-01 06:41:00,78.2,75.4,29.95,NE,56,0.0,0.0,91,0.00,,FEW,0.00,0.00,VWS V14.01,2013-06-01 10:41:00,
2013-06-01 06:42:00,78.2,75.4,29.95,NE,56,0.0,0.0,91,0.00,,FEW,0.00,0.00,VWS V14.01,2013-06-01 10:42:00,
2013-06-01 06:43:00,78.2,75.4,29.95,NE,56,0.0,0.0,91,0.00,,FEW,0.00,0.00,VWS V14.01,2013-06-01 10:43:00,
2013-06-01 06:47:00,78.2,75.4,29.95,ENE,71,1.0,2.0,91,0.00,,FEW,0.00,5.00,VWS V14.01,2013-06-01 10:47:00,
2013-06-01 06:48:00,78.2,75.4,29.95,ENE,60,0.0,3.0,91,0.00,,FEW,0.00,5.00,VWS V14.01,2013-06-01 10:48:00,
2013-06-01 06:52:00,78.2,75.4,29.95,NE,55,0.0,2.0,91,0.00,,FEW,0.00,7.00,VWS V14.01,2013-06-01 10:52:00,
2013-06-01 06:53:00,78.2,75.4,29.95,ESE,102,0.0,2.0,91,0.00,,FEW,0.00,9.00,VWS V14.01,2013-06-01 10:53:00,
2013-06-01 06:57:00,78.1,75.3,29.95,East,96,0.0,2.0,91,0.00,,FEW,0.00,11.00,VWS V14.01,2013-06-01 10:57:00,
2013-06-01 06:58:00,78.1,75.3,29.95,ENE,75,2.0,2.0,91,0.00,,FEW,0.00,12.00,VWS V14.01,2013-06-01 10:58:00,
2013-06-01 07:02:00,78.1,75.3,29.96,NE,45,0.0,1.0,91,0.00,,FEW,0.00,14.00,VWS V14.01,2013-06-01 11:02:00,
2013-06-01 07:03:00,78.1,75.3,29.96,NE,47,1.0,2.0,91,0.00,,FEW,0.00,14.00,VWS V14.01,2013-06-01 11:03:00,
2013-06-01 07:04:00,78.1,75.3,29.96,NE,47,1.0,2.0,91,0.00,,FEW,0.00,16.00,VWS V14.01,2013-06-01 11:04:00,
2013-06-01 07:07:00,78.1,75.3,29.96,ENE,70,1.0,3.0,91,0.00,,FEW,0.00,19.00,VWS V14.01,2013-06-01 11:07:00,
2013-06-01 07:08:00,78.1,75.3,29.96,ENE,70,1.0,3.0,91,0.00,,FEW,0.00,19.00,VWS V14.01,2013-06-01 11:08:00,
2013-06-01 07:09:00,78.1,75.3,29.96,NE,55,1.0,3.0,91,0.00,,FEW,0.00,21.00,VWS V14.01,2013-06-01 11:09:00,
2013-06-01 07:12:00,78.1,75.3,29.96,NE,49,1.0,3.0,91,0.00,,FEW,0.00,25.00,VWS V14.01,2013-06-01 11:12:00,
2013-06-01 07:13:00,78.1,75.3,29.96,NE,49,0.0,3.0,91,0.00,,FEW,0.00,25.00,VWS V14.01,2013-06-01 11:13:00,
2013-06-01 07:14:00,78.1,75.3,29.96,NE,49,1.0,3.0,91,0.00,,FEW,0.00,26.00,VWS V14.01,2013-06-01 11:14:00,
2013-06-01 07:17:00,78.1,75.3,29.96,ENE,73,0.0,3.0,91,0.00,,FEW,0.00,26.00,VWS V14.01,2013-06-01 11:17:00,
2013-06-01 07:18:00,78.1,75.3,29.96,ENE,73,0.0,3.0,91,0.00,,FEW,0.00,28.00,VWS V14.01,2013-06-01 11:18:00,
2013-06-01 07:19:00,78.1,75.3,29.96,ENE,73,0.0,3.0,91,0.00,,FEW,0.00,28.00,VWS V14.01,2013-06-01 11:19:00,
2013-06-01 07:23:00,78.2,75.4,29.96,East,83,1.0,2.0,91,0.00,,FEW,0.00,28.00,VWS V14.01,2013-06-01 11:23:00,
2013-06-01 07:24:00,78.2,75.4,29.96,East,83,0.0,2.0,91,0.00,,FEW,0.00,30.00,VWS V14.01,2013-06-01 11:24:00,
2013-06-01 07:28:00,78.2,75.4,29.96,East,83,0.0,2.0,91,0.00,,FEW,0.00,30.00,VWS V14.01,2013-06-01 11:28:00,
2013-06-01 07:29:00,78.2,75.4,29.96,East,83,0.0,2.0,91,0.00,,FEW,0.00,30.00,VWS V14.01,2013-06-01 11:29:00,
2013-06-01 07:33:00,78.3,75.8,29.96,East,83,0.0,2.0,92,0.00,,FEW,0.00,33.00,VWS V14.01,2013-06-01 11:33:00,
2013-06-01 07:34:00,78.3,75.8,29.96,East,83,0.0,2.0,92,0.00,,FEW,0.00,39.00,VWS V14.01,2013-06-01 11:34:00,
2013-06-01 07:38:00,78.4,75.9,29.96,East,83,0.0,2.0,92,0.00,,FEW,0.00,42.00,VWS V14.01,2013-06-01 11:38:00,
2013-06-01 07:39:00,78.4,75.9,29.96,East,83,0.0,2.0,92,0.00,,FEW,0.00,42.00,VWS V14.01,2013-06-01 11:39:00,
2013-06-01 07:43:00,78.5,76.0,29.96,East,83,0.0,0.0,92,0.00,,FEW,0.00,35.00,VWS V14.01,2013-06-01 11:43:00,
2013-06-01 07:44:00,78.5,76.0,29.96,East,83,0.0,0.0,92,0.00,,FEW,0.00,35.00,VWS V14.01,2013-06-01 11:44:00,
2013-06-01 07:45:00,78.5,76.0,29.96,East,83,0.0,0.0,92,0.00,,FEW,0.00,35.00,VWS V14.01,2013-06-01 11:45:00,
2013-06-01 07:48:00,78.6,76.1,29.96,East,83,0.0,0.0,92,0.00,,FEW,0.00,37.00,VWS V14.01,2013-06-01 11:48:00,
2013-06-01 07:49:00,78.6,76.1,29.96,East,83,0.0,0.0,92,0.00,,FEW,0.00,37.00,VWS V14.01,2013-06-01 11:49:00,
2013-06-01 07:50:00,78.7,76.2,29.96,East,83,0.0,1.0,92,0.00,,FEW,0.00,37.00,VWS V14.01,2013-06-01 11:50:00,
2013-06-01 07:53:00,78.7,76.2,29.96,East,83,0.0,1.0,92,0.00,,FEW,0.00,46.00,VWS V14.01,2013-06-01 11:53:00,
2013-06-01 07:54:00,78.7,76.2,29.96,East,83,0.0,1.0,92,0.00,,FEW,0.00,46.00,VWS V14.01,2013-06-01 11:54:00,
2013-06-01 07:55:00,78.7,76.2,29.96,East,83,0.0,1.0,92,0.00,,FEW,0.00,49.00,VWS V14.01,2013-06-01 11:55:00,
2013-06-01 07:59:00,78.8,76.3,29.96,East,83,0.0,1.0,92,0.00,,FEW,0.00,67.00,VWS V14.01,2013-06-01 11:59:00,
2013-06-01 08:00:00,78.8,76.3,29.96,East,83,0.0,1.0,92,0.00,,FEW,0.00,67.00,VWS V14.01,2013-06-01 12:00:00,
2013-06-01 08:04:00,78.9,76.4,29.97,East,83,0.0,2.0,92,0.00,,FEW,0.00,79.00,VWS V14.01,2013-06-01 12:04:00,
2013-06-01 08:05:00,78.9,76.4,29.97,East,83,0.0,2.0,92,0.00,,FEW,0.00,88.00,VWS V14.01,2013-06-01 12:05:00,
2013-06-01 08:09:00,79.0,76.5,29.97,East,83,0.0,2.0,92,0.00,,FEW,0.00,139.00,VWS V14.01,2013-06-01 12:09:00,
2013-06-01 08:10:00,78.9,76.4,29.97,East,83,0.0,2.0,92,0.00,,FEW,0.00,139.00,VWS V14.01,2013-06-01 12:10:00,
2013-06-01 08:11:00,79.0,76.5,29.97,East,83,0.0,2.0,92,0.00,,FEW,0.00,163.00,VWS V14.01,2013-06-01 12:11:00,
2013-06-01 08:14:00,79.4,76.6,29.97,East,83,0.0,0.0,91,0.00,,FEW,0.00,214.00,VWS V14.01,2013-06-01 12:14:00,
2013-06-01 08:15:00,79.4,76.6,29.97,East,83,0.0,0.0,91,0.00,,FEW,0.00,214.00,VWS V14.01,2013-06-01 12:15:00,
2013-06-01 08:16:00,79.5,76.3,29.98,East,83,0.0,1.0,90,0.00,,FEW,0.00,225.00,VWS V14.01,2013-06-01 12:16:00,
2013-06-01 08:20:00,79.9,76.4,29.98,East,83,1.0,3.0,89,0.00,,FEW,0.00,223.00,VWS V14.01,2013-06-01 12:20:00,
2013-06-01 08:21:00,80.1,76.6,29.98,East,83,1.0,3.0,89,0.00,,FEW,0.00,227.00,VWS V14.01,2013-06-01 12:21:00,
2013-06-01 08:25:00,80.4,76.5,29.98,East,83,1.0,2.0,88,0.00,,FEW,0.00,301.00,VWS V14.01,2013-06-01 12:25:00,
2013-06-01 08:26:00,80.6,76.7,29.98,East,83,2.0,2.0,88,0.00,,FEW,0.00,392.00,VWS V14.01,2013-06-01 12:26:00,
2013-06-01 08:30:00,81.3,77.1,29.98,East,83,1.0,2.0,87,0.00,,FEW,0.00,415.00,VWS V14.01,2013-06-01 12:30:00,
2013-06-01 08:31:00,81.5,77.3,29.99,ENE,69,1.0,2.0,87,0.00,,FEW,0.00,415.00,VWS V14.01,2013-06-01 12:31:00,
2013-06-01 08:35:00,81.9,76.9,29.99,NE,55,0.0,3.0,85,0.00,,FEW,0.00,380.00,VWS V14.01,2013-06-01 12:35:00,
2013-06-01 08:36:00,82.0,77.1,29.99,NE,55,1.0,3.0,85,0.00,,FEW,0.00,403.00,VWS V14.01,2013-06-01 12:36:00,
2013-06-01 08:40:00,82.3,77.0,29.99,NE,54,1.0,3.0,84,0.00,,FEW,0.00,352.00,VWS V14.01,2013-06-01 12:40:00,
2013-06-01 08:41:00,82.2,76.5,29.99,NE,56,1.0,3.0,83,0.00,,FEW,0.00,441.00,VWS V14.01,2013-06-01 12:41:00,
2013-06-01 08:45:00,82.5,76.8,29.99,NE,56,0.0,2.0,83,0.00,,FEW,0.00,406.00,VWS V14.01,2013-06-01 12:45:00,
2013-06-01 08:46:00,82.5,76.8,29.99,NE,56,1.0,2.0,83,0.00,,FEW,0.00,406.00,VWS V14.01,2013-06-01 12:46:00,
2013-06-01 08:50:00,83.0,76.9,29.99,ESE,103,0.0,2.0,82,0.00,,FEW,0.00,457.00,VWS V14.01,2013-06-01 12:50:00,
2013-06-01 08:51:00,83.1,77.0,29.99,ESE,103,0.0,2.0,82,0.00,,FEW,0.00,448.00,VWS V14.01,2013-06-01 12:51:00,
2013-06-01 08:55:00,83.2,76.8,29.99,East,82,0.0,3.0,81,0.00,,FEW,0.00,269.00,VWS V14.01,2013-06-01 12:55:00,
2013-06-01 08:56:00,83.2,76.8,29.99,East,82,0.0,3.0,81,0.00,,FEW,0.00,269.00,VWS V14.01,2013-06-01 12:56:00,
2013-06-01 08:57:00,83.2,76.8,29.99,East,79,0.0,3.0,81,0.00,,FEW,0.00,269.00,VWS V14.01,2013-06-01 12:57:00,
2013-06-01 09:00:00,83.2,77.1,29.99,East,79,0.0,3.0,82,0.00,,FEW,0.00,434.00,VWS V14.01,2013-06-01 13:00:00,
2013-06-01 09:01:00,83.2,76.8,29.99,ENE,75,1.0,3.0,81,0.00,,FEW,0.00,434.00,VWS V14.01,2013-06-01 13:01:00,
2013-06-01 09:02:00,83.3,76.9,29.99,ENE,69,0.0,1.0,81,0.00,,FEW,0.00,339.00,VWS V14.01,2013-06-01 13:02:00,
2013-06-01 09:05:00,83.3,76.9,29.99,East,95,0.0,2.0,81,0.00,,FEW,0.00,160.00,VWS V14.01,2013-06-01 13:05:00,
2013-06-01 09:06:00,83.2,76.8,29.99,East,95,0.0,2.0,81,0.00,,FEW,0.00,200.00,VWS V14.01,2013-06-01 13:06:00,
2013-06-01 09:07:00,83.1,76.7,29.99,East,95,0.0,2.0,81,0.00,,FEW,0.00,200.00,VWS V14.01,2013-06-01 13:07:00,
2013-06-01 09:10:00,82.9,76.5,29.99,SE,129,2.0,3.0,81,0.00,,FEW,0.00,446.00,VWS V14.01,2013-06-01 13:10:00,
2013-06-01 09:11:00,82.9,76.5,29.99,ESE,111,2.0,3.0,81,0.00,,FEW,0.00,469.00,VWS V14.01,2013-06-01 13:11:00,
2013-06-01 09:12:00,82.9,76.8,29.99,ESE,117,1.0,3.0,82,0.00,,FEW,0.00,485.00,VWS V14.01,2013-06-01 13:12:00,
2013-06-01 09:15:00,83.3,77.2,30.00,ESE,107,1.0,3.0,82,0.00,,FEW,0.00,515.00,VWS V14.01,2013-06-01 13:15:00,
2013-06-01 09:16:00,83.4,77.3,30.00,ESE,111,0.0,3.0,82,0.00,,FEW,0.00,515.00,VWS V14.01,2013-06-01 13:16:00,
2013-06-01 09:17:00,83.4,77.3,30.00,ESE,111,2.0,3.0,82,0.00,,FEW,0.00,504.00,VWS V14.01,2013-06-01 13:17:00,
2013-06-01 09:20:00,83.3,76.9,30.00,SE,134,4.0,4.0,81,0.00,,FEW,0.00,415.00,VWS V14.01,2013-06-01 13:20:00,
2013-06-01 09:21:00,83.3,76.9,30.00,East,90,3.0,4.0,81,0.00,,FEW,0.00,504.00,VWS V14.01,2013-06-01 13:21:00,
2013-06-01 09:22:00,83.3,76.9,30.00,ESE,123,1.0,3.0,81,0.00,,FEW,0.00,504.00,VWS V14.01,2013-06-01 13:22:00,
2013-06-01 09:25:00,83.7,77.6,30.00,SE,132,1.0,3.0,82,0.00,,FEW,0.00,497.00,VWS V14.01,2013-06-01 13:25:00,
2013-06-01 09:26:00,83.8,77.7,30.00,ESE,123,1.0,3.0,82,0.00,,FEW,0.00,497.00,VWS V14.01,2013-06-01 13:26:00,
2013-06-01 09:27:00,83.9,77.8,30.00,East,90,2.0,3.0,82,0.00,,FEW,0.00,294.00,VWS V14.01,2013-06-01 13:27:00,
2013-06-01 09:28:00,83.8,77.3,30.00,ESE,112,0.0,3.0,81,0.00,,FEW,0.00,264.00,VWS V14.01,2013-06-01 13:28:00,
2013-06-01 09:30:00,83.8,77.3,30.00,East,94,1.0,3.0,81,0.00,,FEW,0.00,424.00,VWS V14.01,2013-06-01 13:30:00,
2013-06-01 09:31:00,83.8,77.3,30.00,ENE,76,3.0,3.0,81,0.00,,FEW,0.00,418.00,VWS V14.01,2013-06-01 13:31:00,
2013-06-01 09:32:00,83.8,77.3,30.00,ESE,115,1.0,3.0,81,0.00,,FEW,0.00,427.00,VWS V14.01,2013-06-01 13:32:00,
2013-06-01 09:33:00,83.8,77.3,30.00,ESE,115,1.0,3.0,81,0.00,,FEW,0.00,448.00,VWS V14.01,2013-06-01 13:33:00,
2013-06-01 09:35:00,83.9,77.4,30.00,ENE,67,1.0,3.0,81,0.00,,FEW,0.00,522.00,VWS V14.01,2013-06-01 13:35:00,
2013-06-01 09:37:00,84.1,78.0,30.00,East,101,1.0,3.0,82,0.00,,FEW,0.00,545.00,VWS V14.01,2013-06-01 13:37:00,
2013-06-01 09:38:00,84.1,77.6,30.00,East,82,1.0,3.0,81,0.00,,FEW,0.00,548.00,VWS V14.01,2013-06-01 13:38:00,
2013-06-01 09:41:00,84.5,78.0,30.00,East,80,0.0,3.0,81,0.00,,FEW,0.00,545.00,VWS V14.01,2013-06-01 13:41:00,
2013-06-01 09:42:00,84.6,78.1,30.00,ESE,108,2.0,2.0,81,0.00,,FEW,0.00,545.00,VWS V14.01,2013-06-01 13:42:00,
2013-06-01 09:43:00,84.7,78.2,30.00,ENE,74,2.0,3.0,81,0.00,,FEW,0.00,531.00,VWS V14.01,2013-06-01 13:43:00,
2013-06-01 09:46:00,84.8,77.9,30.00,ENE,73,2.0,4.0,80,0.00,,FEW,0.00,461.00,VWS V14.01,2013-06-01 13:46:00,
2013-06-01 09:47:00,84.8,77.9,30.00,ENE,76,0.0,4.0,80,0.00,,FEW,0.00,512.00,VWS V14.01,2013-06-01 13:47:00,
2013-06-01 09:48:00,84.8,77.9,30.00,ENE,69,0.0,4.0,80,0.00,,FEW,0.00,512.00,VWS V14.01,2013-06-01 13:48:00,
2013-06-01 09:51:00,84.7,77.8,30.00,ESE,105,0.0,4.0,80,0.00,,FEW,0.00,527.00,VWS V14.01,2013-06-01 13:51:00,
2013-06-01 09:52:00,84.7,77.8,30.00,ESE,111,1.0,2.0,80,0.00,,FEW,0.00,545.00,VWS V14.01,2013-06-01 13:52:00,
2013-06-01 09:53:00,84.7,77.8,30.00,ESE,113,2.0,3.0,80,0.00,,FEW,0.00,545.00,VWS V14.01,2013-06-01 13:53:00,
2013-06-01 09:56:00,84.6,77.8,30.00,ESE,117,2.0,4.0,80,0.00,,FEW,0.00,561.00,VWS V14.01,2013-06-01 13:56:00,
2013-06-01 09:57:00,84.6,77.8,30.00,ESE,119,1.0,4.0,80,0.00,,FEW,0.00,568.00,VWS V14.01,2013-06-01 13:57:00,
2013-06-01 09:58:00,84.6,77.8,30.00,SE,124,3.0,5.0,80,0.00,,FEW,0.00,571.00,VWS V14.01,2013-06-01 13:58:00,
2013-06-01 10:01:00,84.7,77.8,30.00,East,82,1.0,1.0,80,0.00,,FEW,0.00,594.00,VWS V14.01,2013-06-01 14:01:00,
2013-06-01 10:02:00,84.8,77.9,30.00,ESE,106,3.0,5.0,80,0.00,,FEW,0.00,601.00,VWS V14.01,2013-06-01 14:02:00,
2013-06-01 10:03:00,84.8,77.9,30.00,ESE,118,2.0,5.0,80,0.00,,FEW,0.00,605.00,VWS V14.01,2013-06-01 14:03:00,
2013-06-01 10:04:00,84.8,77.9,30.00,ESE,117,2.0,6.0,80,0.00,,FEW,0.00,610.00,VWS V14.01,2013-06-01 14:04:00,
2013-06-01 10:06:00,84.9,78.0,30.00,East,87,5.0,6.0,80,0.00,,FEW,0.00,621.00,VWS V14.01,2013-06-01 14:06:00,
2013-06-01 10:07:00,85.0,78.1,30.00,ESE,115,0.0,6.0,80,0.00,,FEW,0.00,622.00,VWS V14.01,2013-06-01 14:07:00,
2013-06-01 10:08:00,85.0,78.1,30.00,ESE,113,1.0,6.0,80,0.00,,FEW,0.00,622.00,VWS V14.01,2013-06-01 14:08:00,
2013-06-01 10:09:00,85.0,78.1,30.00,ESE,113,2.0,6.0,80,0.00,,FEW,0.00,626.00,VWS V14.01,2013-06-01 14:09:00,
2013-06-01 10:11:00,85.2,78.3,30.00,ESE,104,2.0,2.0,80,0.00,,FEW,0.00,628.00,VWS V14.01,2013-06-01 14:11:00,
2013-06-01 10:12:00,85.2,78.3,30.00,East,82,0.0,3.0,80,0.00,,FEW,0.00,629.00,VWS V14.01,2013-06-01 14:12:00,
2013-06-01 10:13:00,85.2,77.9,30.00,East,84,1.0,3.0,79,0.00,,FEW,0.00,635.00,VWS V14.01,2013-06-01 14:13:00,
2013-06-01 10:14:00,85.2,77.9,30.00,East,91,1.0,3.0,79,0.00,,FEW,0.00,635.00,VWS V14.01,2013-06-01 14:14:00,
2013-06-01 10:17:00,85.2,77.9,30.00,ESE,111,1.0,3.0,79,0.00,,FEW,0.00,643.00,VWS V14.01,2013-06-01 14:17:00,
2013-06-01 10:18:00,85.2,77.9,30.00,ESE,118,2.0,3.0,79,0.00,,FEW,0.00,652.00,VWS V14.01,2013-06-01 14:18:00,
2013-06-01 10:19:00,85.2,77.9,30.00,ESE,118,1.0,3.0,79,0.00,,FEW,0.00,654.00,VWS V14.01,2013-06-01 14:19:00,
2013-06-01 10:22:00,85.3,78.4,30.00,ESE,107,1.0,2.0,80,0.00,,FEW,0.00,663.00,VWS V14.01,2013-06-01 14:22:00,
2013-06-01 10:23:00,85.3,78.1,30.00,ESE,108,0.0,2.0,79,0.00,,FEW,0.00,668.00,VWS V14.01,2013-06-01 14:23:00,
2013-06-01 10:24:00,85.4,78.2,30.00,East,88,3.0,3.0,79,0.00,,FEW,0.00,670.00,VWS V14.01,2013-06-01 14:24:00,
2013-06-01 10:25:00,85.5,78.6,30.00,ENE,71,1.0,3.0,80,0.00,,FEW,0.00,673.00,VWS V14.01,2013-06-01 14:25:00,
2013-06-01 10:27:00,85.6,78.3,30.00,East,80,1.0,3.0,79,0.00,,FEW,0.00,679.00,VWS V14.01,2013-06-01 14:27:00,
2013-06-01 10:28:00,85.6,78.3,30.00,ENE,74,1.0,3.0,79,0.00,,FEW,0.00,680.00,VWS V14.01,2013-06-01 14:28:00,
2013-06-01 10:29:00,85.7,78.4,30.00,East,80,2.0,4.0,79,0.00,,FEW,0.00,682.00,VWS V14.01,2013-06-01 14:29:00,
2013-06-01 10:30:00,85.8,78.5,30.00,SE,132,3.0,4.0,79,0.00,,FEW,0.00,687.00,VWS V14.01,2013-06-01 14:30:00,
2013-06-01 10:32:00,86.0,78.3,30.00,ENE,76,2.0,3.0,78,0.00,,FEW,0.00,691.00,VWS V14.01,2013-06-01 14:32:00,
2013-06-01 10:33:00,86.0,78.7,30.00,East,81,1.0,5.0,79,0.00,,FEW,0.00,693.00,VWS V14.01,2013-06-01 14:33:00,
2013-06-01 10:34:00,86.0,78.3,30.00,ENE,67,2.0,5.0,78,0.00,,FEW,0.00,693.00,VWS V14.01,2013-06-01 14:34:00,
2013-06-01 10:35:00,85.9,78.2,30.00,East,90,0.0,5.0,78,0.00,,FEW,0.00,696.00,VWS V14.01,2013-06-01 14:35:00,
2013-06-01 10:38:00,85.9,78.2,30.00,ENE,58,1.0,5.0,78,0.00,,FEW,0.00,708.00,VWS V14.01,2013-06-01 14:38:00,
2013-06-01 10:39:00,86.2,78.9,30.00,East,92,1.0,5.0,79,0.00,,FEW,0.00,735.00,VWS V14.01,2013-06-01 14:39:00,
2013-06-01 10:40:00,86.1,78.4,30.00,SE,128,1.0,5.0,78,0.00,,FEW,0.00,754.00,VWS V14.01,2013-06-01 14:40:00,
2013-06-01 10:43:00,86.2,78.5,30.00,ESE,103,3.0,3.0,78,0.00,,FEW,0.00,745.00,VWS V14.01,2013-06-01 14:43:00,
2013-06-01 10:44:00,86.4,78.3,30.00,East,96,1.0,3.0,77,0.00,,FEW,0.00,745.00,VWS V14.01,2013-06-01 14:44:00,
2013-06-01 10:45:00,86.4,78.3,30.00,ESE,110,0.0,3.0,77,0.00,,FEW,0.00,571.00,VWS V14.01,2013-06-01 14:45:00,
2013-06-01 10:46:00,86.4,78.7,30.00,ENE,71,0.0,3.0,78,0.00,,FEW,0.00,571.00,VWS V14.01,2013-06-01 14:46:00,
2013-06-01 10:48:00,86.5,78.4,30.00,East,92,2.0,5.0,77,0.00,,FEW,0.00,740.00,VWS V14.01,2013-06-01 14:48:00,
2013-06-01 10:49:00,86.4,78.3,30.00,ENE,66,2.0,5.0,77,0.00,,FEW,0.00,740.00,VWS V14.01,2013-06-01 14:49:00,
2013-06-01 10:50:00,86.4,78.3,30.00,East,88,2.0,5.0,77,0.00,,FEW,0.00,740.00,VWS V14.01,2013-06-01 14:50:00,
2013-06-01 10:51:00,86.3,78.2,30.00,ESE,119,4.0,5.0,77,0.00,,FEW,0.00,742.00,VWS V14.01,2013-06-01 14:51:00,
2013-06-01 10:53:00,86.5,78.8,30.00,East,86,1.0,3.0,78,0.00,,FEW,0.00,754.00,VWS V14.01,2013-06-01 14:53:00,
2013-06-01 10:54:00,86.5,78.8,30.00,East,84,1.0,3.0,78,0.00,,FEW,0.00,754.00,VWS V14.01,2013-06-01 14:54:00,
2013-06-01 10:55:00,86.6,78.5,30.00,ESE,105,1.0,3.0,77,0.00,,FEW,0.00,758.00,VWS V14.01,2013-06-01 14:55:00,
2013-06-01 10:56:00,86.6,78.9,30.00,ESE,119,1.0,3.0,78,0.00,,FEW,0.00,758.00,VWS V14.01,2013-06-01 14:56:00,
2013-06-01 10:58:00,86.6,78.9,30.00,ENE,68,1.0,3.0,78,0.00,,FEW,0.00,768.00,VWS V14.01,2013-06-01 14:58:00,
2013-06-01 10:59:00,86.6,78.9,30.00,ESE,123,2.0,3.0,78,0.00,,FEW,0.00,768.00,VWS V14.01,2013-06-01 14:59:00,
2013-06-01 11:00:00,86.5,78.4,30.00,ESE,104,0.0,4.0,77,0.00,,FEW,0.00,772.00,VWS V14.01,2013-06-01 15:00:00,
2013-06-01 11:01:00,86.6,78.9,30.00,ESE,119,2.0,4.0,78,0.00,,FEW,0.00,777.00,VWS V14.01,2013-06-01 15:01:00,
2013-06-01 11:04:00,86.6,78.9,30.00,SE,146,4.0,4.0,78,0.00,,FEW,0.00,786.00,VWS V14.01,2013-06-01 15:04:00,
2013-06-01 11:05:00,86.4,78.3,30.00,ESE,117,1.0,4.0,77,0.00,,FEW,0.00,791.00,VWS V14.01,2013-06-01 15:05:00,
2013-06-01 11:06:00,86.3,78.2,30.00,SSE,149,1.0,5.0,77,0.00,,FEW,0.00,795.00,VWS V14.01,2013-06-01 15:06:00,
2013-06-01 11:09:00,86.3,79.0,30.00,ESE,116,2.0,5.0,79,0.00,,FEW,0.00,823.00,VWS V14.01,2013-06-01 15:09:00,
2013-06-01 11:10:00,86.3,78.6,30.00,East,92,1.0,5.0,78,0.00,,FEW,0.00,831.00,VWS V14.01,2013-06-01 15:10:00,
2013-06-01 11:11:00,86.4,78.7,30.00,ESE,123,1.0,5.0,78,0.00,,FEW,0.00,851.00,VWS V14.01,2013-06-01 15:11:00,
2013-06-01 11:14:00,86.6,78.5,30.00,SE,127,0.0,5.0,77,0.00,,FEW,0.00,893.00,VWS V14.01,2013-06-01 15:14:00,
2013-06-01 11:15:00,86.9,79.2,30.00,SE,130,2.0,5.0,78,0.00,,FEW,0.00,893.00,VWS V14.01,2013-06-01 15:15:00,
2013-06-01 11:16:00,87.1,79.0,30.01,ENE,74,1.0,5.0,77,0.00,,FEW,0.00,893.00,VWS V14.01,2013-06-01 15:16:00,
2013-06-01 11:19:00,86.6,78.5,30.01,East,99,1.0,5.0,77,0.00,,FEW,0.00,311.00,VWS V14.01,2013-06-01 15:19:00,
2013-06-01 11:20:00,86.4,78.3,30.01,NE,39,3.0,5.0,77,0.00,,FEW,0.00,306.00,VWS V14.01,2013-06-01 15:20:00,
2013-06-01 11:21:00,86.2,78.2,30.01,East,99,2.0,3.0,77,0.00,,FEW,0.00,272.00,VWS V14.01,2013-06-01 15:21:00,
2013-06-01 11:24:00,85.4,77.0,30.01,SE,128,3.0,7.0,76,0.00,,FEW,0.00,285.00,VWS V14.01,2013-06-01 15:24:00,
2013-06-01 11:25:00,85.1,77.1,30.01,SE,132,5.0,8.0,77,0.00,,FEW,0.00,227.00,VWS V14.01,2013-06-01 15:25:00,
2013-06-01 11:26:00,85.0,77.0,30.01,SE,132,3.0,8.0,77,0.00,,FEW,0.00,167.00,VWS V14.01,2013-06-01 15:26:00,
2013-06-01 11:29:00,84.5,76.1,30.01,ESE,113,4.0,10.0,76,0.00,,FEW,0.00,105.00,VWS V14.01,2013-06-01 15:29:00,
2013-06-01 11:30:00,84.5,76.1,30.01,SSE,157,7.0,10.0,76,0.00,,FEW,0.00,100.00,VWS V14.01,2013-06-01 15:30:00,
2013-06-01 11:31:00,84.1,76.1,30.02,ESE,109,4.0,8.0,77,0.00,,FEW,0.00,102.00,VWS V14.01,2013-06-01 15:31:00,
2013-06-01 11:35:00,83.2,75.2,30.02,ESE,110,7.0,11.0,77,0.00,,FEW,0.00,116.00,VWS V14.01,2013-06-01 15:35:00,
2013-06-01 11:36:00,82.9,74.9,30.02,SSE,162,4.0,11.0,77,0.00,,FEW,0.00,113.00,VWS V14.01,2013-06-01 15:36:00,
2013-06-01 11:40:00,82.1,75.3,30.02,ENE,77,4.0,11.0,80,0.02,,FEW,0.02,113.00,VWS V14.01,2013-06-01 15:40:00,
2013-06-01 11:41:00,82.0,75.6,30.02,SE,136,1.0,11.0,81,0.03,,FEW,0.03,113.00,VWS V14.01,2013-06-01 15:41:00,
2013-06-01 11:42:00,82.0,75.6,30.02,ESE,113,2.0,4.0,81,0.05,,FEW,0.05,114.00,VWS V14.01,2013-06-01 15:42:00,
2013-06-01 11:45:00,81.3,75.7,30.02,SSE,148,2.0,7.0,83,0.10,,FEW,0.10,132.00,VWS V14.01,2013-06-01 15:45:00,
2013-06-01 11:46:00,81.1,75.4,30.02,East,100,1.0,7.0,83,0.10,,FEW,0.10,132.00,VWS V14.01,2013-06-01 15:46:00,
2013-06-01 11:47:00,80.9,75.6,30.02,SE,128,7.0,7.0,84,0.11,,FEW,0.11,137.00,VWS V14.01,2013-06-01 15:47:00,
2013-06-01 11:50:00,80.2,75.3,30.02,SE,134,1.0,7.0,85,0.14,,FEW,0.14,146.00,VWS V14.01,2013-06-01 15:50:00,
2013-06-01 11:51:00,80.1,75.5,30.02,ESE,104,1.0,7.0,86,0.15,,FEW,0.15,149.00,VWS V14.01,2013-06-01 15:51:00,
2013-06-01 11:52:00,80.0,75.4,30.02,SE,128,0.0,2.0,86,0.16,,FEW,0.16,155.00,VWS V14.01,2013-06-01 15:52:00,
2013-06-01 11:55:00,79.6,75.4,30.02,ESE,115,1.0,4.0,87,0.17,,FEW,0.17,165.00,VWS V14.01,2013-06-01 15:55:00,
2013-06-01 11:56:00,79.5,75.6,30.02,East,95,0.0,4.0,88,0.17,,FEW,0.17,171.00,VWS V14.01,2013-06-01 15:56:00,
2013-06-01 11:57:00,79.4,75.5,30.02,ESE,123,2.0,4.0,88,0.17,,FEW,0.17,176.00,VWS V14.01,2013-06-01 15:57:00,
2013-06-01 12:00:00,79.2,75.7,30.00,ESE,103,1.0,4.0,89,0.18,,FEW,0.18,185.00,VWS V14.01,2013-06-01 16:00:00,
2013-06-01 12:01:00,79.1,75.6,30.00,ESE,123,2.0,4.0,89,0.18,,FEW,0.18,185.00,VWS V14.01,2013-06-01 16:01:00,
2013-06-01 12:02:00,78.9,75.4,30.00,East,86,0.0,2.0,89,0.18,,FEW,0.18,185.00,VWS V14.01,2013-06-01 16:02:00,
2013-06-01 12:05:00,78.8,75.3,30.00,ENE,57,2.0,3.0,89,0.19,,FEW,0.19,178.00,VWS V14.01,2013-06-01 16:05:00,
2013-06-01 12:06:00,78.8,75.6,30.00,ESE,110,1.0,3.0,90,0.19,,FEW,0.19,178.00,VWS V14.01,2013-06-01 16:06:00,
2013-06-01 12:07:00,78.8,75.6,30.00,East,87,1.0,3.0,90,0.19,,FEW,0.19,179.00,VWS V14.01,2013-06-01 16:07:00,
2013-06-01 12:10:00,79.0,76.2,30.00,East,85,0.0,3.0,91,0.19,,FEW,0.19,172.00,VWS V14.01,2013-06-01 16:10:00,
2013-06-01 12:11:00,79.1,76.2,30.00,East,85,0.0,3.0,91,0.19,,FEW,0.19,165.00,VWS V14.01,2013-06-01 16:11:00,
2013-06-01 12:12:00,79.2,76.3,30.00,NE,34,2.0,2.0,91,0.19,,FEW,0.19,162.00,VWS V14.01,2013-06-01 16:12:00,
2013-06-01 12:16:00,79.4,76.9,30.01,NE,49,0.0,2.0,92,0.20,,FEW,0.20,165.00,VWS V14.01,2013-06-01 16:16:00,
2013-06-01 12:17:00,79.4,76.6,30.01,ENE,69,1.0,2.0,91,0.20,,FEW,0.20,169.00,VWS V14.01,2013-06-01 16:17:00,
2013-06-01 12:18:00,79.3,76.4,30.01,East,83,2.0,2.0,91,0.20,,FEW,0.20,176.00,VWS V14.01,2013-06-01 16:18:00,
2013-06-01 12:21:00,79.4,76.9,30.01,ENE,59,1.0,3.0,92,0.20,,FEW,0.20,200.00,VWS V14.01,2013-06-01 16:21:00,
2013-06-01 12:22:00,79.4,76.9,30.01,ENE,59,1.0,2.0,92,0.20,,FEW,0.20,204.00,VWS V14.01,2013-06-01 16:22:00,
2013-06-01 12:23:00,79.4,76.9,30.01,ENE,58,0.0,2.0,92,0.21,,FEW,0.21,200.00,VWS V14.01,2013-06-01 16:23:00,
2013-06-01 12:26:00,79.5,77.3,30.01,NE,42,2.0,3.0,93,0.21,,FEW,0.21,216.00,VWS V14.01,2013-06-01 16:26:00,
2013-06-01 12:27:00,79.4,76.9,30.01,NE,42,2.0,3.0,92,0.21,,FEW,0.21,229.00,VWS V14.01,2013-06-01 16:27:00,
2013-06-01 12:28:00,79.4,76.9,30.01,NE,46,2.0,4.0,92,0.21,,FEW,0.21,229.00,VWS V14.01,2013-06-01 16:28:00,
2013-06-01 12:31:00,79.5,77.0,30.00,NE,53,1.0,3.0,92,0.21,,FEW,0.21,308.00,VWS V14.01,2013-06-01 16:31:00,
2013-06-01 12:32:00,79.5,77.3,30.00,NE,46,3.0,3.0,93,0.21,,FEW,0.21,306.00,VWS V14.01,2013-06-01 16:32:00,
2013-06-01 12:33:00,79.5,77.3,30.00,NE,40,2.0,4.0,93,0.21,,FEW,0.21,315.00,VWS V14.01,2013-06-01 16:33:00,
2013-06-01 12:34:00,79.5,77.3,30.00,ENE,58,2.0,4.0,93,0.21,,FEW,0.21,315.00,VWS V14.01,2013-06-01 16:34:00,
2013-06-01 12:36:00,79.9,77.7,30.00,NE,36,3.0,4.0,93,0.21,,FEW,0.21,403.00,VWS V14.01,2013-06-01 16:36:00,
2013-06-01 12:37:00,80.0,77.8,30.00,NE,34,3.0,4.0,93,0.21,,FEW,0.21,501.00,VWS V14.01,2013-06-01 16:37:00,
2013-06-01 12:38:00,80.1,77.9,30.00,NE,41,1.0,4.0,93,0.21,,FEW,0.21,431.00,VWS V14.01,2013-06-01 16:38:00,
2013-06-01 12:39:00,80.2,78.0,30.00,ENE,65,2.0,4.0,93,0.21,,FEW,0.21,515.00,VWS V14.01,2013-06-01 16:39:00,
2013-06-01 12:42:00,80.2,78.0,30.00,NE,36,3.0,4.0,93,0.17,,FEW,0.21,578.00,VWS V14.01,2013-06-01 16:42:00,
2013-06-01 12:43:00,80.2,77.7,30.00,NNE,33,2.0,6.0,92,0.17,,FEW,0.21,612.00,VWS V14.01,2013-06-01 16:43:00,
2013-06-01 12:44:00,80.3,77.8,30.00,NE,40,5.0,6.0,92,0.17,,FEW,0.21,612.00,VWS V14.01,2013-06-01 16:44:00,
2013-06-01 12:47:00,80.4,77.9,30.00,NE,34,5.0,6.0,92,0.17,,FEW,0.21,571.00,VWS V14.01,2013-06-01 16:47:00,
2013-06-01 12:48:00,80.3,77.4,30.00,NNE,33,4.0,6.0,91,0.17,,FEW,0.21,571.00,VWS V14.01,2013-06-01 16:48:00,
2013-06-01 12:49:00,80.3,77.4,30.00,ENE,65,3.0,6.0,91,0.17,,FEW,0.21,708.00,VWS V14.01,2013-06-01 16:49:00,
2013-06-01 12:52:00,80.4,77.2,30.00,NNE,26,4.0,5.0,90,0.05,,FEW,0.21,552.00,VWS V14.01,2013-06-01 16:52:00,
2013-06-01 12:53:00,80.5,77.3,30.00,NNE,13,4.0,6.0,90,0.05,,FEW,0.21,580.00,VWS V14.01,2013-06-01 16:53:00,
2013-06-01 12:54:00,80.5,77.3,30.00,NE,55,4.0,6.0,90,0.05,,FEW,0.21,543.00,VWS V14.01,2013-06-01 16:54:00,
2013-06-01 12:57:00,80.7,77.5,30.00,NNE,26,4.0,7.0,90,0.05,,FEW,0.21,548.00,VWS V14.01,2013-06-01 16:57:00,
2013-06-01 12:58:00,80.8,77.6,30.00,ENE,70,2.0,7.0,90,0.05,,FEW,0.21,687.00,VWS V14.01,2013-06-01 16:58:00,
2013-06-01 12:59:00,80.9,77.7,30.00,NE,34,3.0,7.0,90,0.05,,FEW,0.21,638.00,VWS V14.01,2013-06-01 16:59:00,
2013-06-01 13:02:00,81.5,77.6,30.00,NE,36,4.0,6.0,88,0.03,,FEW,0.21,664.00,VWS V14.01,2013-06-01 17:02:00,
2013-06-01 13:03:00,81.7,77.8,30.00,NNE,28,6.0,6.0,88,0.03,,FEW,0.21,664.00,VWS V14.01,2013-06-01 17:03:00,
2013-06-01 13:04:00,81.8,77.9,30.00,NE,53,6.0,6.0,88,0.03,,FEW,0.21,664.00,VWS V14.01,2013-06-01 17:04:00,
2013-06-01 13:05:00,82.0,78.1,30.00,NE,51,4.0,7.0,88,0.03,,FEW,0.21,664.00,VWS V14.01,2013-06-01 17:05:00,
2013-06-01 13:07:00,82.3,78.1,30.00,NNE,17,3.0,7.0,87,0.03,,FEW,0.21,297.00,VWS V14.01,2013-06-01 17:07:00,
2013-06-01 13:08:00,82.3,78.1,30.00,NE,49,4.0,7.0,87,0.03,,FEW,0.21,276.00,VWS V14.01,2013-06-01 17:08:00,
2013-06-01 13:09:00,82.2,77.9,30.00,East,94,5.0,7.0,87,0.03,,FEW,0.21,276.00,VWS V14.01,2013-06-01 17:09:00,
2013-06-01 13:10:00,82.1,77.8,30.00,ENE,63,4.0,7.0,87,0.03,,FEW,0.21,283.00,VWS V14.01,2013-06-01 17:10:00,
2013-06-01 13:12:00,81.8,77.6,30.00,NE,40,3.0,4.0,87,0.02,,FEW,0.21,258.00,VWS V14.01,2013-06-01 17:12:00,
2013-06-01 13:14:00,81.6,77.7,30.00,NE,39,2.0,8.0,88,0.02,,FEW,0.21,211.00,VWS V14.01,2013-06-01 17:14:00,
2013-06-01 13:15:00,81.5,77.6,30.00,NE,34,2.0,8.0,88,0.02,,FEW,0.21,172.00,VWS V14.01,2013-06-01 17:15:00,
2013-06-01 13:17:00,81.0,76.8,30.00,NE,34,4.0,13.0,87,0.02,,FEW,0.21,135.00,VWS V14.01,2013-06-01 17:17:00,
2013-06-01 13:19:00,80.8,76.9,30.00,East,82,6.0,13.0,88,0.02,,FEW,0.21,128.00,VWS V14.01,2013-06-01 17:19:00,
2013-06-01 13:20:00,80.7,76.8,30.00,NE,53,5.0,13.0,88,0.02,,FEW,0.21,118.00,VWS V14.01,2013-06-01 17:20:00,
2013-06-01 13:23:00,80.3,76.4,30.00,ENE,63,8.0,8.0,88,0.01,,FEW,0.21,104.00,VWS V14.01,2013-06-01 17:23:00,
2013-06-01 13:24:00,80.3,76.4,30.00,NE,49,3.0,10.0,88,0.01,,FEW,0.21,105.00,VWS V14.01,2013-06-01 17:24:00,
2013-06-01 13:25:00,80.2,76.3,30.00,ENE,59,3.0,10.0,88,0.01,,FEW,0.21,107.00,VWS V14.01,2013-06-01 17:25:00,
2013-06-01 13:28:00,79.9,76.4,30.00,ENE,57,3.0,10.0,89,0.01,,FEW,0.21,84.00,VWS V14.01,2013-06-01 17:28:00,
2013-06-01 13:29:00,79.8,76.3,30.00,ESE,112,2.0,10.0,89,0.01,,FEW,0.21,67.00,VWS V14.01,2013-06-01 17:29:00,
2013-06-01 13:30:00,79.8,76.3,30.00,East,80,2.0,10.0,89,0.01,,FEW,0.21,53.00,VWS V14.01,2013-06-01 17:30:00,
2013-06-01 13:33:00,79.6,76.1,30.00,ENE,70,2.0,5.0,89,0.00,,FEW,0.21,35.00,VWS V14.01,2013-06-01 17:33:00,
2013-06-01 13:34:00,79.5,76.0,30.00,East,93,2.0,5.0,89,0.00,,FEW,0.21,33.00,VWS V14.01,2013-06-01 17:34:00,
2013-06-01 13:35:00,79.3,75.8,30.00,East,89,1.0,5.0,89,0.00,,FEW,0.21,33.00,VWS V14.01,2013-06-01 17:35:00,
2013-06-01 13:38:00,79.1,75.9,30.00,East,92,2.0,5.0,90,0.07,,FEW,0.28,32.00,VWS V14.01,2013-06-01 17:38:00,
2013-06-01 13:39:00,79.0,75.8,30.00,ENE,62,4.0,5.0,90,0.13,,FEW,0.34,32.00,VWS V14.01,2013-06-01 17:39:00,
2013-06-01 13:40:00,79.0,75.8,30.00,East,80,1.0,5.0,90,0.13,,FEW,0.34,32.00,VWS V14.01,2013-06-01 17:40:00,
2013-06-01 13:44:00,78.6,75.4,30.00,ENE,78,1.0,6.0,90,0.24,,FEW,0.45,32.00,VWS V14.01,2013-06-01 17:44:00,
2013-06-01 13:45:00,78.5,75.3,30.00,ENE,74,0.0,6.0,90,0.27,,FEW,0.48,30.00,VWS V14.01,2013-06-01 17:45:00,
2013-06-01 13:46:00,78.5,75.7,30.01,SE,127,1.0,6.0,91,0.32,,FEW,0.53,26.00,VWS V14.01,2013-06-01 17:46:00,
2013-06-01 13:49:00,78.2,75.4,30.01,SSE,157,4.0,6.0,91,0.41,,FEW,0.62,23.00,VWS V14.01,2013-06-01 17:49:00,
2013-06-01 13:50:00,78.1,75.3,30.01,ESE,109,10.0,10.0,91,0.43,,FEW,0.64,23.00,VWS V14.01,2013-06-01 17:50:00,
2013-06-01 13:51:00,77.9,75.1,30.01,SE,144,5.0,10.0,91,0.46,,FEW,0.67,21.00,VWS V14.01,2013-06-01 17:51:00,
2013-06-01 13:54:00,77.4,74.6,30.01,SSE,165,4.0,5.0,91,0.62,,FEW,0.83,21.00,VWS V14.01,2013-06-01 17:54:00,
2013-06-01 13:55:00,77.3,74.5,30.01,South,177,1.0,5.0,91,0.63,,FEW,0.84,21.00,VWS V14.01,2013-06-01 17:55:00,
2013-06-01 13:56:00,77.1,74.3,30.01,SE,138,2.0,8.0,91,0.69,,FEW,0.90,21.00,VWS V14.01,2013-06-01 17:56:00,
2013-06-01 13:59:00,76.8,74.3,30.01,South,188,7.0,8.0,92,0.87,,FEW,1.08,25.00,VWS V14.01,2013-06-01 17:59:00,
2013-06-01 14:00:00,76.8,74.3,30.01,SSW,197,3.0,8.0,92,0.89,,FEW,1.10,25.00,VWS V14.01,2013-06-01 18:00:00,
2013-06-01 14:01:00,76.7,74.2,30.01,South,178,5.0,8.0,92,0.95,,FEW,1.16,26.00,VWS V14.01,2013-06-01 18:01:00,
2013-06-01 14:04:00,76.5,74.0,30.01,South,173,2.0,6.0,92,1.11,,FEW,1.32,32.00,VWS V14.01,2013-06-01 18:04:00,
2013-06-01 14:05:00,76.4,73.9,30.01,South,173,1.0,6.0,92,1.15,,FEW,1.36,35.00,VWS V14.01,2013-06-01 18:05:00,
2013-06-01 14:06:00,76.4,73.9,30.01,SSE,149,2.0,6.0,92,1.19,,FEW,1.40,37.00,VWS V14.01,2013-06-01 18:06:00,
2013-06-01 14:09:00,76.3,74.1,30.01,SSE,165,2.0,6.0,93,1.34,,FEW,1.55,44.00,VWS V14.01,2013-06-01 18:09:00,
2013-06-01 14:10:00,76.3,74.1,30.01,SSE,166,1.0,6.0,93,1.38,,FEW,1.59,44.00,VWS V14.01,2013-06-01 18:10:00,
2013-06-01 14:11:00,76.2,74.0,30.01,South,173,2.0,6.0,93,1.39,,FEW,1.60,46.00,VWS V14.01,2013-06-01 18:11:00,
2013-06-01 14:14:00,76.1,73.9,30.01,SE,140,0.0,3.0,93,1.47,,FEW,1.68,49.00,VWS V14.01,2013-06-01 18:14:00,
2013-06-01 14:15:00,76.1,73.9,30.00,SE,140,0.0,3.0,93,1.48,,FEW,1.69,51.00,VWS V14.01,2013-06-01 18:15:00,
2013-06-01 14:16:00,76.1,73.9,30.00,SE,140,0.0,3.0,93,1.48,,FEW,1.69,51.00,VWS V14.01,2013-06-01 18:16:00,
2013-06-01 14:19:00,76.1,73.9,30.00,SE,140,0.0,3.0,93,1.51,,FEW,1.72,56.00,VWS V14.01,2013-06-01 18:19:00,
2013-06-01 14:21:00,76.1,73.9,30.00,SE,140,0.0,3.0,93,1.53,,FEW,1.74,56.00,VWS V14.01,2013-06-01 18:21:00,
2013-06-01 14:25:00,76.1,73.9,30.00,SE,140,0.0,0.0,93,1.55,,FEW,1.76,56.00,VWS V14.01,2013-06-01 18:25:00,
2013-06-01 14:26:00,76.1,73.9,30.00,SE,140,0.0,0.0,93,1.56,,FEW,1.77,58.00,VWS V14.01,2013-06-01 18:26:00,
2013-06-01 14:30:00,76.1,74.2,30.00,SE,140,0.0,0.0,94,1.58,,FEW,1.79,65.00,VWS V14.01,2013-06-01 18:30:00,
2013-06-01 14:31:00,76.1,74.2,29.99,SE,136,0.0,0.0,94,1.59,,FEW,1.80,67.00,VWS V14.01,2013-06-01 18:31:00,
2013-06-01 14:32:00,76.2,74.3,29.99,SE,137,0.0,0.0,94,1.59,,FEW,1.80,69.00,VWS V14.01,2013-06-01 18:32:00,
2013-06-01 14:35:00,76.2,74.3,29.99,ENE,77,0.0,2.0,94,1.61,,FEW,1.82,72.00,VWS V14.01,2013-06-01 18:35:00,
2013-06-01 14:36:00,76.3,74.4,29.99,ENE,71,1.0,2.0,94,1.62,,FEW,1.83,72.00,VWS V14.01,2013-06-01 18:36:00,
2013-06-01 14:37:00,76.3,74.4,29.99,ENE,71,1.0,2.0,94,1.62,,FEW,1.83,76.00,VWS V14.01,2013-06-01 18:37:00,
2013-06-01 14:40:00,76.5,74.7,29.99,East,85,2.0,3.0,94,1.63,,FEW,1.84,81.00,VWS V14.01,2013-06-01 18:40:00,
2013-06-01 14:41:00,76.4,74.6,29.99,ENE,61,1.0,4.0,94,1.63,,FEW,1.84,83.00,VWS V14.01,2013-06-01 18:41:00,
2013-06-01 14:42:00,76.4,74.6,29.99,ENE,61,1.0,1.0,94,1.45,,FEW,1.84,84.00,VWS V14.01,2013-06-01 18:42:00,
2013-06-01 14:45:00,76.4,74.6,29.99,ENE,66,1.0,3.0,94,1.46,,FEW,1.85,91.00,VWS V14.01,2013-06-01 18:45:00,
2013-06-01 14:46:00,76.4,74.6,29.99,ENE,65,0.0,3.0,94,1.46,,FEW,1.85,93.00,VWS V14.01,2013-06-01 18:46:00,
2013-06-01 14:47:00,76.4,74.6,29.99,ENE,64,1.0,3.0,94,1.46,,FEW,1.85,93.00,VWS V14.01,2013-06-01 18:47:00,
2013-06-01 14:50:00,76.5,75.0,29.99,ENE,67,1.0,3.0,95,1.47,,FEW,1.86,100.00,VWS V14.01,2013-06-01 18:50:00,
2013-06-01 14:51:00,76.5,75.0,29.99,ENE,75,1.0,2.0,95,1.17,,FEW,1.86,104.00,VWS V14.01,2013-06-01 18:51:00,
2013-06-01 14:52:00,76.5,75.0,29.99,East,81,0.0,2.0,95,1.17,,FEW,1.86,104.00,VWS V14.01,2013-06-01 18:52:00,
2013-06-01 14:56:00,76.7,75.2,29.99,ENE,74,0.0,3.0,95,1.18,,FEW,1.87,113.00,VWS V14.01,2013-06-01 18:56:00,
2013-06-01 14:57:00,76.7,75.2,29.99,East,90,2.0,3.0,95,1.18,,FEW,1.87,116.00,VWS V14.01,2013-06-01 18:57:00,
2013-06-01 15:01:00,76.8,75.3,29.98,ENE,67,0.0,3.0,95,1.19,,FEW,1.88,125.00,VWS V14.01,2013-06-01 19:01:00,
2013-06-01 15:02:00,76.9,75.4,29.98,ENE,67,1.0,1.0,95,0.72,,FEW,1.88,127.00,VWS V14.01,2013-06-01 19:02:00,
2013-06-01 15:06:00,76.9,75.1,29.98,ENE,67,1.0,2.0,94,0.73,,FEW,1.89,141.00,VWS V14.01,2013-06-01 19:06:00,
2013-06-01 15:07:00,76.9,75.1,29.98,NE,49,2.0,3.0,94,0.73,,FEW,1.89,144.00,VWS V14.01,2013-06-01 19:07:00,
2013-06-01 15:11:00,77.0,75.5,29.98,ENE,78,0.0,3.0,95,0.74,,FEW,1.90,172.00,VWS V14.01,2013-06-01 19:11:00,
2013-06-01 15:12:00,77.0,75.1,29.98,ENE,77,1.0,2.0,94,0.30,,FEW,1.90,172.00,VWS V14.01,2013-06-01 19:12:00,
2013-06-01 15:13:00,77.0,75.5,29.98,East,91,2.0,2.0,95,0.30,,FEW,1.90,181.00,VWS V14.01,2013-06-01 19:13:00,
2013-06-01 15:16:00,76.9,75.1,29.97,ENE,69,0.0,6.0,94,0.30,,FEW,1.90,216.00,VWS V14.01,2013-06-01 19:16:00,
2013-06-01 15:17:00,76.9,75.1,29.97,ENE,69,2.0,6.0,94,0.30,,FEW,1.90,225.00,VWS V14.01,2013-06-01 19:17:00,
2013-06-01 15:18:00,76.8,74.9,29.97,ENE,73,1.0,6.0,94,0.30,,FEW,1.90,232.00,VWS V14.01,2013-06-01 19:18:00,
2013-06-01 15:21:00,76.9,75.1,29.97,ENE,69,3.0,4.0,94,0.17,,FEW,1.91,274.00,VWS V14.01,2013-06-01 19:21:00,
2013-06-01 15:22:00,76.9,75.1,29.97,NE,43,2.0,4.0,94,0.17,,FEW,1.91,274.00,VWS V14.01,2013-06-01 19:22:00,
2013-06-01 15:23:00,76.9,75.1,29.97,NE,43,0.0,4.0,94,0.17,,FEW,1.91,288.00,VWS V14.01,2013-06-01 19:23:00,
2013-06-01 15:26:00,77.3,75.4,29.97,NE,53,0.0,4.0,94,0.17,,FEW,1.91,343.00,VWS V14.01,2013-06-01 19:26:00,
2013-06-01 15:27:00,77.3,75.4,29.97,NE,53,1.0,4.0,94,0.17,,FEW,1.91,343.00,VWS V14.01,2013-06-01 19:27:00,
2013-06-01 15:28:00,77.3,75.4,29.97,NE,53,1.0,4.0,94,0.17,,FEW,1.91,381.00,VWS V14.01,2013-06-01 19:28:00,
2013-06-01 15:31:00,77.5,75.6,29.96,ENE,61,2.0,2.0,94,0.11,,FEW,1.91,420.00,VWS V14.01,2013-06-01 19:31:00,
2013-06-01 15:32:00,77.5,75.6,29.96,ENE,61,1.0,2.0,94,0.11,,FEW,1.91,420.00,VWS V14.01,2013-06-01 19:32:00,
2013-06-01 15:33:00,77.6,75.7,29.96,NE,44,3.0,3.0,94,0.11,,FEW,1.91,427.00,VWS V14.01,2013-06-01 19:33:00,
2013-06-01 15:37:00,78.2,76.3,29.96,ENE,65,1.0,3.0,94,0.11,,FEW,1.91,422.00,VWS V14.01,2013-06-01 19:37:00,
2013-06-01 15:38:00,78.3,76.4,29.96,ENE,59,1.0,3.0,94,0.11,,FEW,1.91,392.00,VWS V14.01,2013-06-01 19:38:00,
2013-06-01 15:42:00,78.4,76.2,29.96,ENE,69,1.0,2.0,93,0.07,,FEW,1.91,336.00,VWS V14.01,2013-06-01 19:42:00,
2013-06-01 15:43:00,78.5,76.3,29.96,ENE,76,2.0,2.0,93,0.07,,FEW,1.91,330.00,VWS V14.01,2013-06-01 19:43:00,
2013-06-01 15:47:00,78.7,76.5,29.96,ENE,74,0.0,2.0,93,0.07,,FEW,1.91,313.00,VWS V14.01,2013-06-01 19:47:00,
2013-06-01 15:48:00,78.7,76.5,29.96,ENE,66,0.0,3.0,93,0.07,,FEW,1.91,308.00,VWS V14.01,2013-06-01 19:48:00,
2013-06-01 15:52:00,78.8,76.6,29.96,ESE,113,1.0,2.0,93,0.05,,FEW,1.91,281.00,VWS V14.01,2013-06-01 19:52:00,
2013-06-01 15:53:00,78.8,76.3,29.96,ESE,112,1.0,2.0,92,0.05,,FEW,1.91,274.00,VWS V14.01,2013-06-01 19:53:00,
2013-06-01 15:54:00,78.8,76.3,29.96,ESE,113,0.0,2.0,92,0.05,,FEW,1.91,274.00,VWS V14.01,2013-06-01 19:54:00,
2013-06-01 15:57:00,79.0,76.8,29.96,ESE,111,2.0,2.0,93,0.05,,FEW,1.91,258.00,VWS V14.01,2013-06-01 19:57:00,
2013-06-01 15:58:00,79.0,76.5,29.96,ESE,111,2.0,2.0,92,0.05,,FEW,1.91,258.00,VWS V14.01,2013-06-01 19:58:00,
2013-06-01 15:59:00,79.1,76.6,29.96,ESE,111,0.0,2.0,92,0.05,,FEW,1.91,262.00,VWS V14.01,2013-06-01 19:59:00,
2013-06-01 16:02:00,79.1,76.6,29.95,East,88,0.0,2.0,92,0.03,,FEW,1.91,290.00,VWS V14.01,2013-06-01 20:02:00,
2013-06-01 16:03:00,79.1,76.6,29.95,ENE,69,1.0,2.0,92,0.03,,FEW,1.91,297.00,VWS V14.01,2013-06-01 20:03:00,
2013-06-01 16:04:00,79.1,76.2,29.95,East,95,1.0,5.0,91,0.03,,FEW,1.91,304.00,VWS V14.01,2013-06-01 20:04:00,
2013-06-01 16:07:00,79.1,76.2,29.95,East,97,2.0,5.0,91,0.03,,FEW,1.91,329.00,VWS V14.01,2013-06-01 20:07:00,
2013-06-01 16:08:00,79.1,76.2,29.95,ENE,74,1.0,5.0,91,0.03,,FEW,1.91,332.00,VWS V14.01,2013-06-01 20:08:00,
2013-06-01 16:09:00,79.2,76.3,29.95,ESE,114,2.0,5.0,91,0.03,,FEW,1.91,338.00,VWS V14.01,2013-06-01 20:09:00,
2013-06-01 16:13:00,79.2,76.0,29.95,ENE,72,2.0,3.0,90,0.01,,FEW,1.91,332.00,VWS V14.01,2013-06-01 20:13:00,
2013-06-01 16:14:00,79.3,76.4,29.95,ENE,72,0.0,3.0,91,0.01,,FEW,1.91,322.00,VWS V14.01,2013-06-01 20:14:00,
2013-06-01 16:18:00,79.6,76.4,29.94,ENE,71,2.0,4.0,90,0.01,,FEW,1.91,325.00,VWS V14.01,2013-06-01 20:18:00,
2013-06-01 16:19:00,79.7,76.5,29.94,ESE,109,0.0,4.0,90,0.01,,FEW,1.91,325.00,VWS V14.01,2013-06-01 20:19:00,
2013-06-01 16:23:00,80.2,76.7,29.94,ESE,113,1.0,4.0,89,0.00,,FEW,1.91,450.00,VWS V14.01,2013-06-01 20:23:00,
2013-06-01 16:24:00,80.4,77.2,29.94,ESE,113,2.0,4.0,90,0.00,,FEW,1.91,754.00,VWS V14.01,2013-06-01 20:24:00,
2013-06-01 16:28:00,81.4,77.2,29.94,ENE,63,3.0,5.0,87,0.00,,FEW,1.91,526.00,VWS V14.01,2013-06-01 20:28:00,
2013-06-01 16:29:00,81.4,77.2,29.94,ENE,63,1.0,5.0,87,0.00,,FEW,1.91,526.00,VWS V14.01,2013-06-01 20:29:00,
2013-06-01 16:30:00,81.6,77.7,29.94,ENE,65,0.0,5.0,88,0.00,,FEW,1.91,496.00,VWS V14.01,2013-06-01 20:30:00,
2013-06-01 16:33:00,81.8,77.6,29.94,SE,136,0.0,1.0,87,0.00,,FEW,1.91,283.00,VWS V14.01,2013-06-01 20:33:00,
2013-06-01 16:34:00,81.8,77.6,29.94,ESE,103,2.0,2.0,87,0.00,,FEW,1.91,283.00,VWS V14.01,2013-06-01 20:34:00,
2013-06-01 16:35:00,81.7,77.5,29.94,ESE,117,3.0,3.0,87,0.00,,FEW,1.91,258.00,VWS V14.01,2013-06-01 20:35:00,
2013-06-01 16:39:00,81.4,76.8,29.94,East,84,0.0,4.0,86,0.00,,FEW,1.91,207.00,VWS V14.01,2013-06-01 20:39:00,
2013-06-01 16:40:00,81.4,76.8,29.94,SE,132,1.0,4.0,86,0.00,,FEW,1.91,204.00,VWS V14.01,2013-06-01 20:40:00,
2013-06-01 16:44:00,81.2,77.0,29.94,SE,124,2.0,2.0,87,0.00,,FEW,1.91,207.00,VWS V14.01,2013-06-01 20:44:00,
2013-06-01 16:45:00,81.2,76.6,29.94,SE,141,2.0,3.0,86,0.00,,FEW,1.91,200.00,VWS V14.01,2013-06-01 20:45:00,
2013-06-01 16:49:00,81.3,77.1,29.94,SSE,151,4.0,4.0,87,0.00,,FEW,1.91,167.00,VWS V14.01,2013-06-01 20:49:00,
2013-06-01 16:50:00,81.2,77.0,29.94,SE,140,1.0,5.0,87,0.00,,FEW,1.91,160.00,VWS V14.01,2013-06-01 20:50:00,
2013-06-01 16:54:00,81.1,76.9,29.94,SSE,151,2.0,3.0,87,0.00,,FEW,1.91,148.00,VWS V14.01,2013-06-01 20:54:00,
2013-06-01 16:55:00,81.1,76.9,29.94,East,96,5.0,5.0,87,0.00,,FEW,1.91,148.00,VWS V14.01,2013-06-01 20:55:00,
2013-06-01 16:59:00,81.0,76.4,29.94,SE,142,4.0,5.0,86,0.00,,FEW,1.91,151.00,VWS V14.01,2013-06-01 20:59:00,
2013-06-01 17:00:00,80.9,76.3,29.94,SE,142,6.0,6.0,86,0.00,,FEW,1.91,151.00,VWS V14.01,2013-06-01 21:00:00,
2013-06-01 17:05:00,80.9,76.3,29.94,SSE,153,3.0,6.0,86,0.00,,FEW,1.91,146.00,VWS V14.01,2013-06-01 21:05:00,
2013-06-01 17:10:00,81.0,76.4,29.94,ESE,109,2.0,6.0,86,0.00,,FEW,1.91,160.00,VWS V14.01,2013-06-01 21:10:00,
2013-06-01 17:11:00,81.0,76.8,29.94,SE,134,3.0,6.0,87,0.00,,FEW,1.91,163.00,VWS V14.01,2013-06-01 21:11:00,
2013-06-01 17:15:00,81.0,76.4,29.94,SE,127,2.0,8.0,86,0.00,,FEW,1.91,162.00,VWS V14.01,2013-06-01 21:15:00,
2013-06-01 17:16:00,81.0,76.4,29.94,SE,131,1.0,8.0,86,0.00,,FEW,1.91,158.00,VWS V14.01,2013-06-01 21:16:00,
2013-06-01 17:20:00,81.2,77.0,29.94,SE,139,2.0,8.0,87,0.00,,FEW,1.91,148.00,VWS V14.01,2013-06-01 21:20:00,
2013-06-01 17:21:00,81.2,76.6,29.94,ESE,111,1.0,8.0,86,0.00,,FEW,1.91,148.00,VWS V14.01,2013-06-01 21:21:00,
2013-06-01 17:25:00,81.2,77.0,29.94,SE,144,1.0,3.0,87,0.00,,FEW,1.91,144.00,VWS V14.01,2013-06-01 21:25:00,
2013-06-01 17:26:00,81.2,77.0,29.94,SE,131,0.0,3.0,87,0.00,,FEW,1.91,144.00,VWS V14.01,2013-06-01 21:26:00,
2013-06-01 17:30:00,81.2,77.0,29.94,SE,133,1.0,5.0,87,0.00,,FEW,1.91,118.00,VWS V14.01,2013-06-01 21:30:00,
2013-06-01 17:31:00,81.2,77.0,29.94,SE,133,0.0,5.0,87,0.00,,FEW,1.91,118.00,VWS V14.01,2013-06-01 21:31:00,
2013-06-01 17:35:00,81.4,77.2,29.94,ESE,113,2.0,4.0,87,0.00,,FEW,1.91,97.00,VWS V14.01,2013-06-01 21:35:00,
2013-06-01 17:36:00,81.4,77.2,29.94,ESE,113,1.0,4.0,87,0.00,,FEW,1.91,91.00,VWS V14.01,2013-06-01 21:36:00,
2013-06-01 17:37:00,81.4,77.2,29.94,SE,138,2.0,4.0,87,0.00,,FEW,1.91,91.00,VWS V14.01,2013-06-01 21:37:00,
2013-06-01 17:40:00,81.5,77.3,29.94,ESE,114,2.0,4.0,87,0.00,,FEW,1.91,88.00,VWS V14.01,2013-06-01 21:40:00,
2013-06-01 17:41:00,81.5,77.3,29.94,SE,142,2.0,4.0,87,0.00,,FEW,1.91,88.00,VWS V14.01,2013-06-01 21:41:00,
2013-06-01 17:42:00,81.5,77.3,29.94,SE,131,2.0,4.0,87,0.00,,FEW,1.91,90.00,VWS V14.01,2013-06-01 21:42:00,
2013-06-01 17:46:00,81.6,77.4,29.95,SSE,163,2.0,4.0,87,0.00,,FEW,1.91,79.00,VWS V14.01,2013-06-01 21:46:00,
2013-06-01 17:47:00,81.5,77.6,29.95,SE,146,3.0,4.0,88,0.00,,FEW,1.91,74.00,VWS V14.01,2013-06-01 21:47:00,
2013-06-01 17:51:00,81.5,77.6,29.95,SE,138,3.0,4.0,88,0.00,,FEW,1.91,74.00,VWS V14.01,2013-06-01 21:51:00,
2013-06-01 17:52:00,81.5,77.6,29.95,SE,127,3.0,4.0,88,0.00,,FEW,1.91,76.00,VWS V14.01,2013-06-01 21:52:00,
2013-06-01 17:56:00,81.5,77.6,29.95,SSE,153,1.0,5.0,88,0.00,,FEW,1.91,70.00,VWS V14.01,2013-06-01 21:56:00,
2013-06-01 17:57:00,81.5,77.6,29.95,SSE,147,2.0,5.0,88,0.00,,FEW,1.91,69.00,VWS V14.01,2013-06-01 21:57:00,
2013-06-01 18:01:00,81.6,77.7,29.95,SE,131,1.0,5.0,88,0.00,,FEW,1.91,67.00,VWS V14.01,2013-06-01 22:01:00,
2013-06-01 18:02:00,81.6,77.7,29.95,SE,130,3.0,3.0,88,0.00,,FEW,1.91,67.00,VWS V14.01,2013-06-01 22:02:00,
2013-06-01 18:03:00,81.6,77.7,29.95,South,169,3.0,4.0,88,0.00,,FEW,1.91,67.00,VWS V14.01,2013-06-01 22:03:00,
2013-06-01 18:06:00,81.7,78.2,29.95,SE,143,3.0,5.0,89,0.00,,FEW,1.91,65.00,VWS V14.01,2013-06-01 22:06:00,
2013-06-01 18:07:00,81.7,78.2,29.95,SSE,156,1.0,5.0,89,0.00,,FEW,1.91,63.00,VWS V14.01,2013-06-01 22:07:00,
2013-06-01 18:08:00,81.6,78.1,29.95,SSE,156,1.0,5.0,89,0.00,,FEW,1.91,60.00,VWS V14.01,2013-06-01 22:08:00,
2013-06-01 18:11:00,81.6,78.1,29.95,SSE,161,2.0,5.0,89,0.00,,FEW,1.91,46.00,VWS V14.01,2013-06-01 22:11:00,
2013-06-01 18:12:00,81.6,78.1,29.95,SSE,148,1.0,2.0,89,0.00,,FEW,1.91,44.00,VWS V14.01,2013-06-01 22:12:00,
2013-06-01 18:13:00,81.6,78.1,29.95,SSE,150,1.0,2.0,89,0.00,,FEW,1.91,42.00,VWS V14.01,2013-06-01 22:13:00,
2013-06-01 18:16:00,81.6,77.7,29.96,SSE,161,3.0,4.0,88,0.00,,FEW,1.91,44.00,VWS V14.01,2013-06-01 22:16:00,
2013-06-01 18:17:00,81.6,77.7,29.96,SE,145,2.0,4.0,88,0.00,,FEW,1.91,46.00,VWS V14.01,2013-06-01 22:17:00,
2013-06-01 18:18:00,81.6,77.7,29.96,SE,144,1.0,4.0,88,0.00,,FEW,1.91,46.00,VWS V14.01,2013-06-01 22:18:00,
2013-06-01 18:21:00,81.5,77.6,29.96,SE,144,1.0,2.0,88,0.00,,FEW,1.91,49.00,VWS V14.01,2013-06-01 22:21:00,
2013-06-01 18:22:00,81.5,77.6,29.96,SE,142,2.0,2.0,88,0.00,,FEW,1.91,49.00,VWS V14.01,2013-06-01 22:22:00,
2013-06-01 18:23:00,81.5,77.6,29.96,SE,136,2.0,2.0,88,0.00,,FEW,1.91,49.00,VWS V14.01,2013-06-01 22:23:00,
2013-06-01 18:27:00,81.5,77.6,29.96,SSE,165,0.0,4.0,88,0.00,,FEW,1.91,54.00,VWS V14.01,2013-06-01 22:27:00,
2013-06-01 18:28:00,81.5,77.6,29.96,SSE,155,2.0,4.0,88,0.00,,FEW,1.91,60.00,VWS V14.01,2013-06-01 22:28:00,
2013-06-01 18:29:00,81.5,77.6,29.96,SE,126,4.0,4.0,88,0.00,,FEW,1.91,63.00,VWS V14.01,2013-06-01 22:29:00,
2013-06-01 18:32:00,81.5,77.6,29.96,SE,139,3.0,4.0,88,0.00,,FEW,1.91,69.00,VWS V14.01,2013-06-01 22:32:00,
2013-06-01 18:33:00,81.5,77.6,29.96,SE,144,2.0,4.0,88,0.00,,FEW,1.91,67.00,VWS V14.01,2013-06-01 22:33:00,
2013-06-01 18:34:00,81.5,77.6,29.96,SE,142,2.0,4.0,88,0.00,,FEW,1.91,62.00,VWS V14.01,2013-06-01 22:34:00,
2013-06-01 18:37:00,81.4,77.5,29.96,SE,132,4.0,5.0,88,0.00,,FEW,1.91,58.00,VWS V14.01,2013-06-01 22:37:00,
2013-06-01 18:38:00,81.4,77.5,29.96,SE,143,3.0,5.0,88,0.00,,FEW,1.91,58.00,VWS V14.01,2013-06-01 22:38:00,
2013-06-01 18:39:00,81.4,77.5,29.96,SE,142,2.0,5.0,88,0.00,,FEW,1.91,56.00,VWS V14.01,2013-06-01 22:39:00,
2013-06-01 18:42:00,81.4,77.5,29.96,SE,139,3.0,4.0,88,0.00,,FEW,1.91,54.00,VWS V14.01,2013-06-01 22:42:00,
2013-06-01 18:43:00,81.4,77.5,29.96,SSE,161,2.0,4.0,88,0.00,,FEW,1.91,53.00,VWS V14.01,2013-06-01 22:43:00,
2013-06-01 18:44:00,81.4,77.5,29.96,SE,132,2.0,4.0,88,0.00,,FEW,1.91,49.00,VWS V14.01,2013-06-01 22:44:00,
2013-06-01 18:47:00,81.4,77.5,29.97,SE,143,0.0,4.0,88,0.00,,FEW,1.91,44.00,VWS V14.01,2013-06-01 22:47:00,
2013-06-01 18:48:00,81.4,77.5,29.97,SE,143,1.0,4.0,88,0.00,,FEW,1.91,44.00,VWS V14.01,2013-06-01 22:48:00,
2013-06-01 18:49:00,81.4,77.5,29.97,SE,139,3.0,4.0,88,0.00,,FEW,1.91,46.00,VWS V14.01,2013-06-01 22:49:00,
2013-06-01 18:52:00,81.4,77.5,29.97,SE,141,2.0,2.0,88,0.00,,FEW,1.91,46.00,VWS V14.01,2013-06-01 22:52:00,
2013-06-01 18:53:00,81.4,77.5,29.97,SSE,148,3.0,3.0,88,0.00,,FEW,1.91,46.00,VWS V14.01,2013-06-01 22:53:00,
2013-06-01 18:54:00,81.4,77.5,29.97,SSE,147,2.0,3.0,88,0.00,,FEW,1.91,46.00,VWS V14.01,2013-06-01 22:54:00,
2013-06-01 18:57:00,81.4,77.5,29.97,SE,145,3.0,4.0,88,0.00,,FEW,1.91,44.00,VWS V14.01,2013-06-01 22:57:00,
2013-06-01 18:58:00,81.4,77.5,29.97,SE,145,2.0,4.0,88,0.00,,FEW,1.91,44.00,VWS V14.01,2013-06-01 22:58:00,
2013-06-01 18:59:00,81.4,77.5,29.97,SE,145,2.0,4.0,88,0.00,,FEW,1.91,40.00,VWS V14.01,2013-06-01 22:59:00,
2013-06-01 19:02:00,81.4,77.5,29.97,SSE,159,1.0,3.0,88,0.00,,FEW,1.91,28.00,VWS V14.01,2013-06-01 23:02:00,
2013-06-01 19:03:00,81.4,77.5,29.97,SSE,155,3.0,3.0,88,0.00,,FEW,1.91,28.00,VWS V14.01,2013-06-01 23:03:00,
2013-06-01 19:04:00,81.4,77.5,29.97,SSE,163,2.0,3.0,88,0.00,,FEW,1.91,25.00,VWS V14.01,2013-06-01 23:04:00,
2013-06-01 19:05:00,81.4,77.2,29.97,SSE,163,1.0,3.0,87,0.00,,FEW,1.91,23.00,VWS V14.01,2013-06-01 23:05:00,
2013-06-01 19:07:00,81.4,77.5,29.97,SE,143,1.0,3.0,88,0.00,,FEW,1.91,23.00,VWS V14.01,2013-06-01 23:07:00,
2013-06-01 19:08:00,81.4,77.5,29.97,SE,143,3.0,4.0,88,0.00,,FEW,1.91,25.00,VWS V14.01,2013-06-01 23:08:00,
2013-06-01 19:09:00,81.4,77.5,29.97,SE,133,2.0,4.0,88,0.00,,FEW,1.91,26.00,VWS V14.01,2013-06-01 23:09:00,
2013-06-01 19:10:00,81.4,77.5,29.97,SE,133,0.0,4.0,88,0.00,,FEW,1.91,26.00,VWS V14.01,2013-06-01 23:10:00,
2013-06-01 19:13:00,81.4,77.5,29.97,SSE,150,3.0,5.0,88,0.00,,FEW,1.91,18.00,VWS V14.01,2013-06-01 23:13:00,
2013-06-01 19:14:00,81.4,77.5,29.97,SE,135,6.0,6.0,88,0.00,,FEW,1.91,12.00,VWS V14.01,2013-06-01 23:14:00,
2013-06-01 19:15:00,81.3,77.1,29.97,SSW,206,9.0,14.0,87,0.01,,FEW,1.92,9.00,VWS V14.01,2013-06-01 23:15:00,
2013-06-01 19:18:00,80.9,76.3,29.97,WSW,245,9.0,14.0,86,0.01,,FEW,1.92,5.00,VWS V14.01,2013-06-01 23:18:00,
2013-06-01 19:19:00,80.8,76.2,29.97,SW,223,9.0,14.0,86,0.01,,FEW,1.92,5.00,VWS V14.01,2013-06-01 23:19:00,
2013-06-01 19:20:00,80.6,76.4,29.97,SW,229,14.0,17.0,87,0.01,,FEW,1.92,5.00,VWS V14.01,2013-06-01 23:20:00,
2013-06-01 19:24:00,80.1,76.2,29.97,South,190,8.0,23.0,88,0.01,,FEW,1.92,7.00,VWS V14.01,2013-06-01 23:24:00,
2013-06-01 19:25:00,79.8,75.9,29.97,SSW,196,15.0,25.0,88,0.01,,FEW,1.92,9.00,VWS V14.01,2013-06-01 23:25:00,
2013-06-01 19:29:00,79.3,75.8,29.97,SSW,202,12.0,25.0,89,0.01,,FEW,1.92,11.00,VWS V14.01,2013-06-01 23:29:00,
2013-06-01 19:30:00,79.1,75.9,29.96,SW,223,16.0,25.0,90,0.01,,FEW,1.92,9.00,VWS V14.01,2013-06-01 23:30:00,
2013-06-01 19:34:00,78.9,76.1,29.96,SW,221,21.0,21.0,91,0.02,,FEW,1.93,9.00,VWS V14.01,2013-06-01 23:34:00,
2013-06-01 19:36:00,78.8,75.9,29.96,South,175,18.0,21.0,91,0.04,,FEW,1.95,11.00,VWS V14.01,2013-06-01 23:36:00,
2013-06-01 19:39:00,78.7,76.2,29.96,South,175,13.0,21.0,92,0.08,,FEW,1.99,12.00,VWS V14.01,2013-06-01 23:39:00,
2013-06-01 19:41:00,78.7,76.2,29.96,SSW,205,17.0,21.0,92,0.10,,FEW,2.01,12.00,VWS V14.01,2013-06-01 23:41:00,
2013-06-01 19:44:00,78.6,76.1,29.96,SSW,204,9.0,16.0,92,0.15,,FEW,2.06,9.00,VWS V14.01,2013-06-01 23:44:00,
2013-06-01 19:45:00,78.6,76.1,29.96,SSW,194,9.0,16.0,92,0.15,,FEW,2.06,9.00,VWS V14.01,2013-06-01 23:45:00,
2013-06-01 19:46:00,78.4,75.9,29.97,SW,222,7.0,17.0,92,0.17,,FEW,2.08,7.00,VWS V14.01,2013-06-01 23:46:00,
2013-06-01 19:49:00,78.2,75.7,29.97,SSW,200,8.0,17.0,92,0.20,,FEW,2.11,7.00,VWS V14.01,2013-06-01 23:49:00,
2013-06-01 19:50:00,78.2,75.7,29.97,SW,216,6.0,17.0,92,0.20,,FEW,2.11,7.00,VWS V14.01,2013-06-01 23:50:00,
2013-06-01 19:51:00,78.1,75.6,29.97,SW,223,10.0,14.0,92,0.21,,FEW,2.12,7.00,VWS V14.01,2013-06-01 23:51:00,
2013-06-01 19:54:00,78.0,75.8,29.97,SW,221,7.0,15.0,93,0.22,,FEW,2.13,7.00,VWS V14.01,2013-06-01 23:54:00,
2013-06-01 19:55:00,78.0,75.8,29.97,SSW,198,7.0,15.0,93,0.22,,FEW,2.13,7.00,VWS V14.01,2013-06-01 23:55:00,
2013-06-01 19:56:00,78.1,75.9,29.97,SW,218,11.0,15.0,93,0.23,,FEW,2.14,7.00,VWS V14.01,2013-06-01 23:56:00,
2013-06-01 19:59:00,77.9,75.4,29.97,SSW,195,9.0,15.0,92,0.24,,FEW,2.15,5.00,VWS V14.01,2013-06-01 23:59:00,
2013-06-01 20:00:00,77.9,75.4,29.97,SSW,202,10.0,15.0,92,0.24,,FEW,2.15,5.00,VWS V14.01,2013-06-02 00:00:00,
2013-06-01 20:02:00,77.8,75.6,29.97,WSW,248,10.0,10.0,93,0.25,,FEW,2.16,5.00,VWS V14.01,2013-06-02 00:02:00,
2013-06-01 20:04:00,77.9,75.7,29.97,SSW,209,7.0,12.0,93,0.26,,FEW,2.17,0.00,VWS V14.01,2013-06-02 00:04:00,
2013-06-01 20:05:00,77.9,75.7,29.97,SW,215,10.0,12.0,93,0.26,,FEW,2.17,0.00,VWS V14.01,2013-06-02 00:05:00,
2013-06-01 20:07:00,78.0,75.8,29.97,SW,215,7.0,12.0,93,0.26,,FEW,2.17,0.00,VWS V14.01,2013-06-02 00:07:00,
2013-06-01 20:10:00,78.0,75.8,29.97,SSW,207,8.0,12.0,93,0.26,,FEW,2.17,0.00,VWS V14.01,2013-06-02 00:10:00,
2013-06-01 20:12:00,78.0,75.8,29.97,SW,234,6.0,11.0,93,0.27,,FEW,2.18,0.00,VWS V14.01,2013-06-02 00:12:00,
2013-06-01 20:15:00,78.0,75.8,29.97,SW,217,7.0,11.0,93,0.28,,FEW,2.19,0.00,VWS V14.01,2013-06-02 00:15:00,
2013-06-01 20:17:00,77.8,75.6,29.98,SW,235,5.0,11.0,93,0.28,,FEW,2.19,0.00,VWS V14.01,2013-06-02 00:17:00,
2013-06-01 20:20:00,77.7,75.5,29.98,SW,227,5.0,11.0,93,0.29,,FEW,2.20,0.00,VWS V14.01,2013-06-02 00:20:00,
2013-06-01 20:22:00,77.6,75.4,29.98,WSW,254,4.0,7.0,93,0.30,,FEW,2.22,0.00,VWS V14.01,2013-06-02 00:22:00,
2013-06-01 20:25:00,77.5,75.3,29.98,SW,225,4.0,7.0,93,0.33,,FEW,2.25,0.00,VWS V14.01,2013-06-02 00:25:00,
2013-06-01 20:26:00,77.5,75.3,29.98,SW,219,3.0,7.0,93,0.33,,FEW,2.25,0.00,VWS V14.01,2013-06-02 00:26:00,
2013-06-01 20:27:00,77.4,75.2,29.98,WSW,257,4.0,7.0,93,0.34,,FEW,2.26,0.00,VWS V14.01,2013-06-02 00:27:00,
2013-06-01 20:30:00,77.3,75.1,29.99,WSW,248,3.0,7.0,93,0.35,,FEW,2.27,0.00,VWS V14.01,2013-06-02 00:30:00,
2013-06-01 20:31:00,77.3,75.1,29.99,WSW,248,3.0,7.0,93,0.35,,FEW,2.27,0.00,VWS V14.01,2013-06-02 00:31:00,
2013-06-01 20:32:00,77.2,75.0,29.99,West,271,1.0,3.0,93,0.36,,FEW,2.28,0.00,VWS V14.01,2013-06-02 00:32:00,
2013-06-01 20:36:00,77.0,74.8,29.99,WSW,253,2.0,5.0,93,0.37,,FEW,2.29,0.00,VWS V14.01,2013-06-02 00:36:00,
2013-06-01 20:37:00,77.0,74.8,29.99,West,268,2.0,5.0,93,0.37,,FEW,2.29,0.00,VWS V14.01,2013-06-02 00:37:00,
2013-06-01 20:41:00,76.8,74.6,29.99,West,281,3.0,5.0,93,0.38,,FEW,2.30,0.00,VWS V14.01,2013-06-02 00:41:00,
2013-06-01 20:43:00,76.7,74.5,29.99,West,279,1.0,2.0,93,0.29,,FEW,2.30,0.00,VWS V14.01,2013-06-02 00:43:00,
2013-06-01 20:46:00,76.6,74.4,29.99,West,279,0.0,2.0,93,0.30,,FEW,2.31,0.00,VWS V14.01,2013-06-02 00:46:00,
2013-06-01 20:48:00,76.5,74.3,29.99,West,279,1.0,2.0,93,0.31,,FEW,2.32,0.00,VWS V14.01,2013-06-02 00:48:00,
2013-06-01 20:51:00,76.4,74.2,29.99,NW,317,0.0,3.0,93,0.31,,FEW,2.32,0.00,VWS V14.01,2013-06-02 00:51:00,
2013-06-01 20:53:00,76.2,74.0,29.99,NW,317,0.0,1.0,93,0.21,,FEW,2.33,0.00,VWS V14.01,2013-06-02 00:53:00,
2013-06-01 20:56:00,76.1,73.9,29.99,North,349,1.0,2.0,93,0.21,,FEW,2.33,0.00,VWS V14.01,2013-06-02 00:56:00,
2013-06-01 20:58:00,75.9,73.7,29.99,North,351,2.0,3.0,93,0.21,,FEW,2.33,0.00,VWS V14.01,2013-06-02 00:58:00,
2013-06-01 21:01:00,75.8,73.6,30.00,North,351,0.0,0.0,93,0.18,,FEW,2.34,0.00,VWS V14.01,2013-06-02 01:01:00,
2013-06-01 21:02:00,75.8,73.6,30.00,North,351,1.0,1.0,93,0.18,,FEW,2.34,0.00,VWS V14.01,2013-06-02 01:02:00,
2013-06-01 21:03:00,75.7,73.5,30.00,North,351,0.0,1.0,93,0.18,,FEW,2.34,0.00,VWS V14.01,2013-06-02 01:03:00,
2013-06-01 21:06:00,75.6,73.4,30.00,North,351,0.0,1.0,93,0.18,,FEW,2.34,0.00,VWS V14.01,2013-06-02 01:06:00,
2013-06-01 21:07:00,75.6,73.4,30.00,North,351,0.0,1.0,93,0.18,,FEW,2.34,0.00,VWS V14.01,2013-06-02 01:07:00,
2013-06-01 21:08:00,75.5,73.3,30.00,North,351,0.0,1.0,93,0.19,,FEW,2.35,0.00,VWS V14.01,2013-06-02 01:08:00,
2013-06-01 21:11:00,75.3,73.1,30.00,North,351,1.0,2.0,93,0.17,,FEW,2.35,0.00,VWS V14.01,2013-06-02 01:11:00,
2013-06-01 21:12:00,75.3,73.1,30.00,North,351,1.0,2.0,93,0.17,,FEW,2.35,0.00,VWS V14.01,2013-06-02 01:12:00,
2013-06-01 21:13:00,75.3,73.1,30.00,North,351,1.0,2.0,93,0.17,,FEW,2.35,0.00,VWS V14.01,2013-06-02 01:13:00,
2013-06-01 21:17:00,75.4,73.6,29.99,North,351,2.0,2.0,94,0.17,,FEW,2.35,0.00,VWS V14.01,2013-06-02 01:17:00,
2013-06-01 21:19:00,75.4,73.6,29.99,North,355,1.0,2.0,94,0.18,,FEW,2.36,0.00,VWS V14.01,2013-06-02 01:19:00,
2013-06-01 21:22:00,75.5,73.7,29.99,North,355,1.0,1.0,94,0.15,,FEW,2.36,0.00,VWS V14.01,2013-06-02 01:22:00,
2013-06-01 21:25:00,75.5,73.7,29.99,North,355,0.0,1.0,94,0.16,,FEW,2.37,0.00,VWS V14.01,2013-06-02 01:25:00,
2013-06-01 21:27:00,75.5,73.7,29.99,North,355,0.0,2.0,94,0.16,,FEW,2.37,0.00,VWS V14.01,2013-06-02 01:27:00,
2013-06-01 21:30:00,75.5,73.7,29.99,North,355,0.0,2.0,94,0.17,,FEW,2.38,0.00,VWS V14.01,2013-06-02 01:30:00,
2013-06-01 21:32:00,75.5,73.7,30.00,North,355,1.0,2.0,94,0.12,,FEW,2.39,0.00,VWS V14.01,2013-06-02 01:32:00,
2013-06-01 21:35:00,75.4,73.6,30.00,NNE,30,2.0,3.0,94,0.12,,FEW,2.39,0.00,VWS V14.01,2013-06-02 01:35:00,
2013-06-01 21:37:00,75.3,73.5,30.00,NNE,32,3.0,3.0,94,0.12,,FEW,2.39,0.00,VWS V14.01,2013-06-02 01:37:00,
2013-06-01 21:40:00,75.3,73.5,30.00,NE,42,2.0,3.0,94,0.13,,FEW,2.40,0.00,VWS V14.01,2013-06-02 01:40:00,
2013-06-01 21:42:00,75.3,73.5,30.00,NE,42,2.0,3.0,94,0.10,,FEW,2.40,0.00,VWS V14.01,2013-06-02 01:42:00,
2013-06-01 21:43:00,75.3,73.5,30.00,NE,39,3.0,3.0,94,0.10,,FEW,2.40,0.00,VWS V14.01,2013-06-02 01:43:00,
2013-06-01 21:45:00,75.3,73.5,30.00,NE,39,1.0,3.0,94,0.10,,FEW,2.40,0.00,VWS V14.01,2013-06-02 01:45:00,
2013-06-01 21:47:00,75.4,73.6,30.00,NNE,24,1.0,3.0,94,0.10,,FEW,2.40,0.00,VWS V14.01,2013-06-02 01:47:00,
2013-06-01 21:48:00,75.4,73.6,30.00,NNE,24,1.0,3.0,94,0.10,,FEW,2.40,0.00,VWS V14.01,2013-06-02 01:48:00,
2013-06-01 21:50:00,75.5,73.7,30.00,NNE,17,4.0,4.0,94,0.10,,FEW,2.40,0.00,VWS V14.01,2013-06-02 01:50:00,
2013-06-01 21:52:00,75.5,73.7,30.00,North,355,2.0,4.0,94,0.08,,FEW,2.40,0.00,VWS V14.01,2013-06-02 01:52:00,
2013-06-01 21:53:00,75.5,73.7,30.00,North,355,1.0,4.0,94,0.08,,FEW,2.40,0.00,VWS V14.01,2013-06-02 01:53:00,
2013-06-01 21:55:00,75.6,73.8,30.00,NNE,15,1.0,4.0,94,0.09,,FEW,2.41,0.00,VWS V14.01,2013-06-02 01:55:00,
2013-06-01 21:58:00,75.6,73.8,30.00,NNE,15,0.0,4.0,94,0.09,,FEW,2.41,0.00,VWS V14.01,2013-06-02 01:58:00,
2013-06-01 22:00:00,75.7,73.8,29.99,NNE,15,0.0,4.0,94,0.09,,FEW,2.41,0.00,VWS V14.01,2013-06-02 02:00:00,
2013-06-01 22:03:00,75.7,73.8,29.99,NNE,15,0.0,2.0,94,0.07,,FEW,2.41,0.00,VWS V14.01,2013-06-02 02:03:00,
2013-06-01 22:06:00,75.7,73.8,29.99,NNE,15,0.0,2.0,94,0.07,,FEW,2.41,0.00,VWS V14.01,2013-06-02 02:06:00,
2013-06-01 22:08:00,75.7,73.8,29.99,NNE,15,1.0,2.0,94,0.07,,FEW,2.41,0.00,VWS V14.01,2013-06-02 02:08:00,
2013-06-01 22:11:00,75.7,73.8,29.99,NNE,15,0.0,2.0,94,0.07,,FEW,2.41,0.00,VWS V14.01,2013-06-02 02:11:00,
2013-06-01 22:13:00,75.7,73.8,29.99,NNE,15,0.0,1.0,94,0.06,,FEW,2.41,0.00,VWS V14.01,2013-06-02 02:13:00,
2013-06-01 22:16:00,75.7,74.2,29.99,NNE,15,0.0,1.0,95,0.06,,FEW,2.41,0.00,VWS V14.01,2013-06-02 02:16:00,
2013-06-01 22:18:00,75.7,74.2,29.99,NNE,15,0.0,1.0,95,0.06,,FEW,2.41,0.00,VWS V14.01,2013-06-02 02:18:00,
2013-06-01 22:19:00,75.8,74.3,29.99,NNE,15,1.0,1.0,95,0.06,,FEW,2.41,0.00,VWS V14.01,2013-06-02 02:19:00,
2013-06-01 22:21:00,75.8,74.3,29.99,NNE,15,0.0,1.0,95,0.06,,FEW,2.41,0.00,VWS V14.01,2013-06-02 02:21:00,
2013-06-01 22:23:00,75.8,74.3,29.99,NNE,15,0.0,1.0,95,0.05,,FEW,2.41,0.00,VWS V14.01,2013-06-02 02:23:00,
2013-06-01 22:24:00,75.8,74.3,29.99,NNE,15,0.0,1.0,95,0.05,,FEW,2.41,0.00,VWS V14.01,2013-06-02 02:24:00,
2013-06-01 22:26:00,75.8,74.3,29.99,NNE,15,0.0,1.0,95,0.05,,FEW,2.41,0.00,VWS V14.01,2013-06-02 02:26:00,
2013-06-01 22:28:00,75.8,74.3,29.99,NNE,15,0.0,1.0,95,0.05,,FEW,2.41,0.00,VWS V14.01,2013-06-02 02:28:00,
2013-06-01 22:29:00,75.8,74.3,29.99,NNE,15,0.0,1.0,95,0.05,,FEW,2.41,0.00,VWS V14.01,2013-06-02 02:29:00,
2013-06-01 22:31:00,75.9,74.4,29.98,NNE,15,0.0,1.0,95,0.05,,FEW,2.41,0.00,VWS V14.01,2013-06-02 02:31:00,
2013-06-01 22:33:00,75.9,74.4,29.98,NNE,15,0.0,0.0,95,0.03,,FEW,2.41,0.00,VWS V14.01,2013-06-02 02:33:00,
2013-06-01 22:34:00,75.9,74.4,29.98,NNE,15,0.0,0.0,95,0.03,,FEW,2.41,0.00,VWS V14.01,2013-06-02 02:34:00,
2013-06-01 22:36:00,75.9,74.4,29.98,NNE,15,0.0,0.0,95,0.03,,FEW,2.41,0.00,VWS V14.01,2013-06-02 02:36:00,
2013-06-01 22:38:00,75.9,74.4,29.98,NNE,15,0.0,0.0,95,0.03,,FEW,2.41,0.00,VWS V14.01,2013-06-02 02:38:00,
2013-06-01 22:39:00,75.9,74.4,29.98,NNE,15,0.0,0.0,95,0.03,,FEW,2.41,0.00,VWS V14.01,2013-06-02 02:39:00,
2013-06-01 22:42:00,76.0,74.5,29.98,NNE,15,0.0,0.0,95,0.01,,FEW,2.41,0.00,VWS V14.01,2013-06-02 02:42:00,
2013-06-01 22:43:00,76.0,74.5,29.98,NNE,15,0.0,0.0,95,0.01,,FEW,2.41,0.00,VWS V14.01,2013-06-02 02:43:00,
2013-06-01 22:44:00,76.0,74.5,29.98,NNE,15,0.0,0.0,95,0.01,,FEW,2.41,0.00,VWS V14.01,2013-06-02 02:44:00,
2013-06-01 22:47:00,76.0,74.5,29.97,NNE,15,0.0,0.0,95,0.01,,FEW,2.41,0.00,VWS V14.01,2013-06-02 02:47:00,
2013-06-01 22:48:00,76.1,74.6,29.97,NNE,15,0.0,0.0,95,0.01,,FEW,2.41,0.00,VWS V14.01,2013-06-02 02:48:00,
2013-06-01 22:49:00,76.0,74.5,29.97,NNE,15,0.0,0.0,95,0.01,,FEW,2.41,0.00,VWS V14.01,2013-06-02 02:49:00,
2013-06-01 22:52:00,76.0,74.5,29.97,North,355,0.0,0.0,95,0.01,,FEW,2.41,0.00,VWS V14.01,2013-06-02 02:52:00,
2013-06-01 22:53:00,76.1,74.6,29.97,North,355,0.0,0.0,95,0.01,,FEW,2.41,0.00,VWS V14.01,2013-06-02 02:53:00,
2013-06-01 22:54:00,76.0,74.5,29.97,North,355,0.0,0.0,95,0.01,,FEW,2.41,0.00,VWS V14.01,2013-06-02 02:54:00,
2013-06-01 22:57:00,76.0,74.5,29.97,North,355,0.0,0.0,95,0.01,,FEW,2.41,0.00,VWS V14.01,2013-06-02 02:57:00,
2013-06-01 22:59:00,76.0,74.5,29.97,North,355,0.0,1.0,95,0.01,,FEW,2.41,0.00,VWS V14.01,2013-06-02 02:59:00,
2013-06-01 23:02:00,76.0,74.5,29.97,North,355,0.0,1.0,95,0.00,,FEW,2.41,0.00,VWS V14.01,2013-06-02 03:02:00,
2013-06-01 23:04:00,76.0,74.5,29.97,North,355,0.0,1.0,95,0.00,,FEW,2.41,0.00,VWS V14.01,2013-06-02 03:04:00,
2013-06-01 23:05:00,76.0,74.5,29.97,North,355,0.0,1.0,95,0.00,,FEW,2.41,0.00,VWS V14.01,2013-06-02 03:05:00,
2013-06-01 23:08:00,75.9,74.4,29.97,North,355,1.0,1.0,95,0.00,,FEW,2.41,0.00,VWS V14.01,2013-06-02 03:08:00,
2013-06-01 23:09:00,75.9,74.4,29.97,North,355,0.0,2.0,95,0.00,,FEW,2.41,0.00,VWS V14.01,2013-06-02 03:09:00,
2013-06-01 23:10:00,75.9,74.4,29.97,North,355,0.0,2.0,95,0.00,,FEW,2.41,0.00,VWS V14.01,2013-06-02 03:10:00,
2013-06-01 23:13:00,75.9,74.4,29.97,North,355,0.0,0.0,95,0.00,,FEW,2.41,0.00,VWS V14.01,2013-06-02 03:13:00,
2013-06-01 23:14:00,75.8,74.3,29.97,North,355,0.0,0.0,95,0.00,,FEW,2.41,0.00,VWS V14.01,2013-06-02 03:14:00,
2013-06-01 23:15:00,75.9,74.4,29.97,North,355,0.0,0.0,95,0.00,,FEW,2.41,0.00,VWS V14.01,2013-06-02 03:15:00,
2013-06-01 23:18:00,75.8,74.3,29.97,North,355,0.0,0.0,95,0.00,,FEW,2.41,0.00,VWS V14.01,2013-06-02 03:18:00,
2013-06-01 23:19:00,75.8,74.3,29.97,North,355,0.0,0.0,95,0.00,,FEW,2.41,0.00,VWS V14.01,2013-06-02 03:19:00,
2013-06-01 23:20:00,75.8,74.3,29.97,North,355,0.0,0.0,95,0.00,,FEW,2.41,0.00,VWS V14.01,2013-06-02 03:20:00,
2013-06-01 23:23:00,75.7,74.2,29.97,North,355,0.0,0.0,95,0.00,,FEW,2.41,0.00,VWS V14.01,2013-06-02 03:23:00,
2013-06-01 23:24:00,75.7,74.2,29.97,North,355,0.0,0.0,95,0.00,,FEW,2.41,0.00,VWS V14.01,2013-06-02 03:24:00,
2013-06-01 23:25:00,75.7,74.2,29.97,North,355,0.0,0.0,95,0.00,,FEW,2.41,0.00,VWS V14.01,2013-06-02 03:25:00,
2013-06-01 23:28:00,75.7,74.2,29.97,North,355,0.0,0.0,95,0.00,,FEW,2.41,0.00,VWS V14.01,2013-06-02 03:28:00,
2013-06-01 23:29:00,75.7,74.2,29.97,North,355,0.0,0.0,95,0.00,,FEW,2.41,0.00,VWS V14.01,2013-06-02 03:29:00,
2013-06-01 23:30:00,75.7,74.2,29.97,North,355,0.0,0.0,95,0.00,,FEW,2.41,0.00,VWS V14.01,2013-06-02 03:30:00,
2013-06-01 23:33:00,75.7,74.2,29.99,North,5,1.0,1.0,95,0.00,,FEW,2.41,0.00,VWS V14.01,2013-06-02 03:33:00,
2013-06-01 23:34:00,75.7,74.2,29.99,North,5,0.0,1.0,95,0.00,,FEW,2.41,0.00,VWS V14.01,2013-06-02 03:34:00,
2013-06-01 23:35:00,75.7,74.2,29.99,North,5,0.0,1.0,95,0.00,,FEW,2.41,0.00,VWS V14.01,2013-06-02 03:35:00,
2013-06-01 23:36:00,75.7,74.2,29.99,North,5,0.0,2.0,95,0.00,,FEW,2.41,0.00,VWS V14.01,2013-06-02 03:36:00,
2013-06-01 23:38:00,75.7,74.2,29.99,North,5,0.0,2.0,95,0.00,,FEW,2.41,0.00,VWS V14.01,2013-06-02 03:38:00,
2013-06-01 23:39:00,75.7,74.2,29.99,North,5,0.0,2.0,95,0.00,,FEW,2.41,0.00,VWS V14.01,2013-06-02 03:39:00,
2013-06-01 23:40:00,75.6,74.1,29.99,North,5,0.0,2.0,95,0.00,,FEW,2.41,0.00,VWS V14.01,2013-06-02 03:40:00,
2013-06-01 23:41:00,75.7,74.2,29.99,North,5,0.0,0.0,95,0.00,,FEW,2.41,0.00,VWS V14.01,2013-06-02 03:41:00,
2013-06-01 23:43:00,75.7,74.2,29.99,North,5,0.0,0.0,95,0.00,,FEW,2.41,0.00,VWS V14.01,2013-06-02 03:43:00,
2013-06-01 23:44:00,75.6,74.1,29.99,North,5,0.0,0.0,95,0.00,,FEW,2.41,0.00,VWS V14.01,2013-06-02 03:44:00,
2013-06-01 23:45:00,75.6,74.1,29.99,North,5,0.0,0.0,95,0.00,,FEW,2.41,0.00,VWS V14.01,2013-06-02 03:45:00,
2013-06-01 23:47:00,75.6,74.1,29.99,North,5,0.0,0.0,95,0.00,,FEW,2.41,0.00,VWS V14.01,2013-06-02 03:47:00,
2013-06-01 23:48:00,75.6,74.1,29.99,North,5,0.0,0.0,95,0.00,,FEW,2.41,0.00,VWS V14.01,2013-06-02 03:48:00,
2013-06-01 23:49:00,75.6,74.1,29.99,North,5,0.0,0.0,95,0.00,,FEW,2.41,0.00,VWS V14.01,2013-06-02 03:49:00,
2013-06-01 23:50:00,75.6,74.1,29.99,North,5,0.0,0.0,95,0.00,,FEW,2.41,0.00,VWS V14.01,2013-06-02 03:50:00,
2013-06-01 23:52:00,75.7,74.2,29.99,North,5,0.0,0.0,95,0.00,,FEW,2.41,0.00,VWS V14.01,2013-06-02 03:52:00,
2013-06-01 23:53:00,75.6,74.1,29.99,North,5,0.0,0.0,95,0.00,,FEW,2.41,0.00,VWS V14.01,2013-06-02 03:53:00,
2013-06-01 23:54:00,75.7,74.2,29.99,North,5,0.0,1.0,95,0.00,,FEW,2.41,0.00,VWS V14.01,2013-06-02 03:54:00,
2013-06-01 23:55:00,75.7,74.2,29.99,NNE,25,1.0,2.0,95,0.00,,FEW,2.41,0.00,VWS V14.01,2013-06-02 03:55:00,
2013-06-01 23:57:00,75.7,74.5,29.99,NNE,25,0.0,2.0,96,0.00,,FEW,2.41,0.00,VWS V14.01,2013-06-02 03:57:00,
2013-06-01 23:59:00,75.7,74.2,29.99,NNE,25,0.0,2.0,95,0.00,,FEW,2.41,0.00,VWS V14.01,2013-06-02 03:59:00,